GFSNW_700_spd_072.txt.gz
Wind_Speed
24 24 26 26 21 20 21 16 21 15 18 26 30 32 27 22 15 20 15 17 15 9 7 6 5 3 3 6 8 4 12 7 9 11 12 14 19 24 25 21 16 15 19 17
24 20 22 26 22 21 16 22 23 20 20 29 33 30 24 27 21 18 15 17 19 12 9 5 2 2 4 5 5 2 2 7 11 15 11 10 14 13 11 16 17 20 13 9
26 22 20 21 19 20 22 22 21 23 31 31 31 29 29 23 24 22 22 16 22 16 15 12 8 4 9 11 8 4 3 5 6 4 5 6 6 7 6 8 14 18 22 20
23 22 21 21 19 25 26 29 29 20 15 33 30 25 24 29 24 24 20 20 25 22 19 16 16 12 12 12 17 15 8 8 9 8 5 4 6 8 9 11 11 14 17 18
26 24 23 23 23 29 33 35 34 27 28 20 19 31 38 30 27 20 18 18 14 17 22 19 11 10 10 10 5 10 14 10 9 12 12 13 15 16 14 13 13 15 14 13
32 29 28 28 29 32 36 36 34 32 26 28 28 24 27 28 25 22 21 15 15 16 16 16 18 17 17 16 15 13 10 10 9 13 8 9 16 25 22 19 14 13 14 12
36 35 33 31 30 37 35 35 35 33 38 29 25 29 28 27 28 28 16 18 14 13 21 20 22 19 18 18 20 21 10 9 7 5 5 6 6 10 13 14 15 13 16 15
30 34 36 36 35 37 41 36 36 37 37 28 31 14 20 28 20 27 22 17 20 19 14 10 8 9 10 16 15 20 21 15 8 8 14 17 21 10 11 8 7 8 6 7
23 27 29 32 34 35 37 38 38 39 29 35 29 30 28 24 19 20 23 25 19 18 11 12 6 7 6 5 5 17 18 20 16 8 7 5 2 6 9 6 6 3 5 9
22 22 24 29 31 34 39 43 42 39 44 38 21 29 30 31 29 22 17 22 25 20 17 12 12 11 8 6 7 12 22 21 24 21 12 7 11 9 8 5 3 6 9 12
22 24 27 28 30 35 38 47 44 46 43 34 35 20 23 25 30 26 21 22 25 26 21 15 10 10 12 11 7 11 16 17 17 18 14 12 8 12 13 11 10 15 18 19
23 24 26 29 28 30 37 46 43 43 44 32 32 39 32 29 26 23 29 28 18 18 14 16 11 10 11 13 14 16 12 15 13 14 12 8 6 5 13 18 23 27 30 25
22 21 23 26 27 29 35 42 41 42 42 41 38 31 33 33 26 22 23 25 30 27 21 14 13 9 12 15 19 14 18 16 19 15 15 16 16 20 25 28 29 26 26 28
23 22 21 22 27 31 33 38 38 40 40 41 31 27 38 21 21 24 24 22 24 19 19 21 20 14 11 13 13 17 16 14 17 19 17 17 17 21 26 24 26 25 22 26
21 22 21 22 23 28 32 34 33 35 39 16 38 30 25 18 34 28 23 20 20 20 22 24 24 23 16 14 18 19 17 15 17 16 19 22 24 26 27 25 27 29 27 27
21 21 20 24 24 29 31 33 35 35 34 30 6 12 26 20 23 21 23 13 23 26 26 28 24 23 17 13 18 16 23 23 23 26 27 22 22 22 24 22 23 24 29 32
22 22 21 20 26 28 30 31 33 28 32 34 19 10 16 21 23 30 28 30 29 26 32 28 29 27 25 26 19 22 23 23 22 26 25 24 27 27 26 26 28 31 33 33
26 23 22 28 27 26 18 25 25 26 28 29 12 9 17 19 23 28 28 27 24 28 29 33 35 26 23 22 29 32 31 32 31 28 26 28 30 28 25 27 29 29 28 30
27 25 26 33 30 25 22 19 21 28 32 20 10 12 11 19 17 26 23 18 18 18 17 19 12 22 20 29 34 36 33 25 18 20 26 25 24 25 26 26 25 25 25 26
32 29 35 34 32 28 20 19 29 23 17 17 14 18 8 15 16 21 22 19 12 9 16 10 19 21 27 31 30 28 25 25 22 24 23 26 30 32 27 27 22 23 25 26
31 28 28 28 27 29 21 17 9 9 9 11 15 11 13 15 17 22 14 9 13 8 9 12 8 18 25 28 30 30 29 27 27 28 29 30 31 32 28 26 20 22 22 20
29 34 44 34 14 8 7 11 10 8 8 12 15 11 10 16 19 16 15 3 9 6 13 11 10 21 22 25 28 30 29 29 27 27 26 25 25 26 23 22 19 18 17 15
31 35 17 9 4 5 8 8 9 9 18 17 16 18 19 16 7 9 9 7 6 5 11 7 16 20 21 20 20 21 23 23 21 21 21 21 21 19 18 17 15 13 13 11
20 10 8 3 5 6 10 13 16 19 21 18 16 15 10 9 6 5 5 6 5 5 5 6 13 13 14 13 13 14 13 13 13 12 12 11 9 8 7 5 4 1 2 3
4 4 3 4 10 19 21 18 16 21 22 19 15 14 7 8 4 4 4 4 5 6 6 10 11 9 7 6 5 4 4 4 4 4 4 4 5 5 6 8 9 9 9 8
3 5 14 17 19 19 18 16 17 19 20 18 13 7 4 5 4 5 6 3 4 5 7 7 6 5 6 7 10 11 12 12 11 11 11 10 10 9 9 10 9 8 7 5
4 8 13 16 17 16 16 15 18 18 17 15 6 6 4 3 4 3 3 4 4 5 6 6 8 11 14 14 13 12 11 9 8 7 8 7 7 7 6 4 3 2 2 3

GFSNW_700_spd_075.txt.gz
Wind_Speed
21 24 22 19 22 21 19 16 16 12 12 25 29 31 20 19 14 17 18 14 13 13 10 8 6 5 4 3 7 2 14 10 14 20 19 23 24 27 24 19 17 21 21 15
23 24 20 17 19 21 18 19 17 15 20 27 28 20 21 22 20 22 18 22 17 15 14 8 9 8 4 5 6 1 2 12 13 14 10 15 20 25 27 27 24 19 4 3
22 23 22 20 21 19 22 19 14 19 26 28 23 21 23 21 21 25 23 22 20 22 21 18 13 9 6 7 7 7 8 9 15 12 6 8 18 14 16 14 17 18 22 19
21 21 26 24 23 21 24 27 26 11 14 27 28 23 16 24 24 18 19 23 26 21 21 21 22 21 18 13 11 7 7 8 9 11 5 2 5 11 14 17 19 18 17 16
18 18 20 27 26 27 31 32 26 17 20 15 20 29 30 21 21 23 22 24 20 22 27 25 18 15 14 14 10 6 10 12 11 13 9 8 11 13 15 17 16 17 16 19
23 22 21 22 27 34 35 32 27 22 18 22 21 18 25 28 23 29 27 19 20 21 17 19 21 17 12 12 12 10 9 10 12 15 11 11 14 19 20 19 18 16 17 12
22 25 26 27 30 37 35 29 27 27 25 22 23 23 19 18 20 20 24 23 19 17 19 14 16 19 18 18 19 17 12 11 12 12 5 10 11 6 6 15 18 17 15 12
25 24 31 33 35 35 36 31 31 31 30 23 24 24 20 18 18 24 28 16 17 22 18 14 12 15 17 20 20 21 21 16 12 9 15 17 19 16 12 11 10 9 8 5
24 24 27 38 36 37 36 35 34 33 30 27 21 22 23 22 19 17 15 24 22 21 16 15 10 11 13 12 10 21 20 22 18 8 14 10 11 6 6 8 12 6 4 2
22 22 22 28 30 39 40 36 37 39 40 29 16 25 23 22 20 21 11 22 20 19 20 14 13 13 7 6 11 20 22 22 25 23 16 12 8 4 3 14 7 4 1 3
21 23 22 23 26 30 35 31 33 36 38 33 29 17 24 22 19 20 12 18 20 16 18 13 10 10 10 11 7 14 20 16 17 19 11 19 10 9 9 7 4 3 4 7
22 22 24 24 25 27 32 37 36 36 38 27 29 32 25 25 21 23 24 19 8 10 9 15 9 9 9 11 14 12 14 16 16 17 16 6 7 7 4 7 10 13 18 21
25 24 24 25 27 29 32 37 37 39 40 36 34 31 35 27 24 20 24 21 19 19 15 13 12 10 8 11 15 13 15 17 13 11 13 15 10 3 10 17 17 23 28 31
25 26 24 24 26 30 31 36 36 36 40 39 28 26 33 21 27 30 27 23 15 21 21 22 18 9 7 10 12 13 15 10 15 17 13 11 7 11 21 20 20 27 29 30
22 25 21 22 23 28 29 29 31 31 30 14 30 21 18 26 23 18 18 22 25 19 17 21 18 15 13 12 14 14 12 12 13 12 14 15 11 18 24 25 25 27 27 29
18 22 25 22 21 28 29 31 33 31 29 18 5 7 22 20 15 17 25 28 20 20 15 19 20 17 15 7 14 13 15 19 20 20 16 16 22 31 25 23 24 25 27 28
23 22 22 25 26 31 35 33 32 25 30 33 20 6 7 17 27 23 21 23 20 23 23 26 22 14 16 19 15 12 21 20 21 25 24 25 24 27 26 28 30 30 31 33
26 24 22 26 23 28 31 29 25 29 29 27 10 7 7 14 24 23 21 21 25 28 27 24 20 21 23 18 26 26 26 26 26 23 24 30 26 25 26 23 21 26 29 29
28 26 25 25 25 24 21 24 18 25 34 28 17 13 10 18 22 22 21 24 21 21 22 23 20 22 14 17 23 25 23 21 22 29 31 26 25 28 26 26 28 26 27 25
31 32 34 30 26 21 20 23 30 35 33 22 17 16 11 11 18 14 14 19 18 13 19 12 16 19 24 21 21 23 25 24 25 24 27 25 26 27 29 31 31 28 27 25
30 39 33 30 26 22 24 9 16 12 11 28 18 15 9 12 15 14 14 7 12 4 7 15 6 13 21 24 25 26 27 27 27 27 29 30 30 31 31 31 28 25 24 24
35 38 37 35 20 7 5 9 9 8 10 17 21 17 17 13 16 12 12 6 9 5 9 9 6 17 21 22 22 23 24 24 25 26 27 26 26 25 24 22 22 19 18 18
32 34 24 11 6 5 7 7 8 7 12 20 22 14 11 11 17 7 7 5 5 3 8 6 12 21 19 20 22 22 22 21 21 20 19 19 19 18 18 16 14 13 12 11
18 10 7 4 5 7 10 16 16 17 18 20 18 15 12 8 7 7 5 7 4 5 4 6 17 16 17 18 20 20 20 19 17 15 14 12 11 9 7 6 6 5 5 4
3 4 4 7 7 13 18 18 18 21 21 20 18 15 8 11 5 5 4 4 4 7 6 16 16 15 14 13 12 11 10 9 8 6 4 3 2 3 4 6 6 7 7 6
2 3 11 17 21 22 21 19 24 23 21 18 16 8 5 5 3 5 5 3 3 7 10 9 9 8 7 6 4 3 4 5 6 7 7 7 7 6 5 6 6 6 5 4
5 12 16 17 21 21 19 20 24 22 20 18 7 6 4 3 3 3 4 6 8 9 7 6 5 5 7 9 9 9 8 6 5 5 5 5 5 5 4 3 1 1 2 4

GFSNW_700_spd_078.txt.gz
Wind_Speed
22 21 21 21 18 18 18 17 12 6 7 25 30 35 23 17 14 12 17 14 12 9 11 8 11 7 3 1 5 6 2 11 18 18 19 18 24 27 25 16 6 15 12 5
15 16 17 17 21 18 15 16 17 17 16 25 28 23 24 22 18 19 15 16 16 15 15 16 13 16 9 5 7 4 3 5 14 11 12 17 19 24 21 24 24 7 3 4
21 20 18 19 21 22 21 19 12 23 21 26 22 20 21 19 20 21 17 20 16 18 21 19 18 13 12 7 7 11 15 8 12 12 6 8 15 15 21 24 28 18 16 16
15 18 22 17 23 25 22 25 23 10 15 26 26 24 13 18 19 17 16 19 22 21 21 23 23 23 23 22 16 12 8 12 15 13 14 7 8 16 17 18 24 13 11 15
17 14 13 18 27 20 27 28 24 17 16 12 20 24 24 23 15 18 19 20 17 23 25 23 20 20 19 16 14 10 11 14 12 18 13 9 16 11 14 7 13 13 11 14
23 23 20 16 26 31 31 29 24 19 15 20 19 17 20 24 20 22 21 21 19 21 22 28 27 23 20 20 12 9 10 11 10 18 12 14 13 17 13 11 12 15 14 12
21 21 22 21 21 36 34 28 23 27 25 16 19 19 17 14 21 24 20 16 22 22 21 23 21 18 20 24 16 16 15 13 14 16 12 7 13 9 6 8 14 16 16 13
20 17 20 22 25 28 31 28 28 28 28 18 17 20 17 16 13 19 19 20 26 26 9 12 10 17 20 27 27 26 22 21 15 17 13 16 14 6 6 9 10 12 16 9
24 21 22 24 28 32 31 30 28 29 28 24 18 18 19 20 17 16 17 20 22 10 9 9 7 11 16 11 12 29 25 25 24 8 9 6 12 18 11 8 13 8 8 8
26 26 26 25 28 31 37 34 32 34 35 28 15 18 15 14 18 21 17 13 19 24 14 11 10 18 16 16 14 23 30 26 26 23 11 7 10 12 2 16 8 11 7 4
21 21 23 25 25 28 41 33 35 36 36 29 25 21 18 16 15 16 17 17 11 15 13 9 12 12 13 11 8 18 23 17 16 18 11 16 7 7 9 11 12 11 10 2
21 20 20 22 22 24 30 35 35 35 35 25 26 30 24 20 18 18 13 16 3 12 8 8 9 13 8 10 9 7 11 15 14 16 17 5 7 11 12 12 1 2 6 12
21 18 22 19 21 22 26 24 28 31 32 29 29 16 20 24 22 23 14 13 24 15 13 16 17 12 8 9 10 10 5 14 13 17 15 11 16 21 10 10 10 13 16 17
21 23 22 20 20 22 23 25 28 29 31 33 25 17 21 20 19 28 24 14 12 16 19 21 10 16 8 3 7 9 8 10 12 16 15 5 12 13 8 5 11 15 19 23
21 20 24 25 23 24 23 28 31 32 31 11 20 27 23 18 24 27 26 24 21 23 20 15 15 15 14 14 10 9 10 5 5 5 6 6 2 5 3 10 16 22 20 23
24 21 22 26 22 24 27 27 27 26 25 26 20 8 17 17 20 24 14 14 21 21 17 18 16 11 9 7 4 11 12 9 10 13 3 7 17 19 17 20 23 25 26 26
22 23 25 26 26 29 33 29 28 22 21 31 21 7 12 18 17 17 21 16 21 22 22 22 19 15 14 16 12 20 14 15 17 12 11 18 21 26 25 24 25 25 25 21
25 23 26 26 29 27 29 29 20 23 26 27 11 6 9 13 22 19 18 20 18 26 24 21 18 13 19 10 15 18 16 21 17 15 18 22 22 22 22 17 20 23 22 25
31 27 26 27 31 29 23 28 15 21 28 19 12 9 7 8 15 19 19 17 12 18 16 21 17 16 11 10 16 18 17 19 23 19 22 24 23 23 21 25 25 26 27 28
33 30 30 26 24 23 22 21 25 26 27 28 13 15 6 7 14 12 17 14 13 7 11 14 21 21 23 23 27 26 22 20 19 20 23 25 25 24 22 24 25 27 29 29
32 33 31 24 24 26 25 15 18 14 16 26 19 15 14 10 14 16 10 4 6 5 10 10 9 12 17 15 14 19 22 25 27 27 26 25 25 27 27 26 27 27 27 25
34 34 31 30 32 8 6 11 12 9 12 14 21 15 13 10 13 9 12 6 6 5 5 7 4 8 14 18 20 21 24 25 26 26 26 26 25 23 23 23 23 22 21 20
32 32 23 13 5 6 7 9 10 8 13 17 24 18 13 12 11 3 6 4 4 2 5 4 7 16 17 19 21 20 20 19 18 17 18 19 20 20 19 19 18 17 15 14
28 9 7 5 5 6 9 15 15 13 15 16 19 17 14 10 13 5 4 6 3 4 4 5 16 14 16 17 17 16 15 15 14 13 13 12 11 11 11 10 9 8 8 7
7 5 3 5 5 10 17 16 14 17 21 23 18 14 10 10 4 5 4 3 3 6 6 14 15 17 18 17 16 14 13 11 10 8 7 6 4 3 2 3 3 3 3 3
3 2 9 11 9 17 18 18 18 20 22 21 16 9 6 5 4 4 5 5 5 8 12 12 13 14 14 12 10 8 6 3 2 1 2 3 3 4 3 3 3 3 2 1
4 10 14 17 17 19 18 19 21 21 20 19 8 5 4 5 3 3 4 7 10 9 11 10 9 7 5 2 0 2 2 2 2 2 1 2 1 1 1 0 1 3 4 6

GFSNW_700_spd_084.txt.gz
Wind_Speed
22 20 18 14 16 17 15 12 16 9 13 21 29 31 28 25 18 6 4 2 3 5 6 5 9 6 3 2 4 3 7 5 7 17 10 12 19 19 14 8 4 6 2 5
19 16 13 12 12 15 13 16 12 15 12 18 19 21 26 22 19 14 6 6 1 1 4 5 4 9 6 1 6 2 4 4 5 4 1 6 8 13 18 21 23 15 4 2
17 13 11 12 11 14 14 16 12 8 7 12 16 15 16 12 11 10 11 10 7 6 4 4 7 8 2 12 2 6 11 6 6 6 11 14 11 19 19 19 7 10 17 19
14 13 9 10 9 13 15 17 15 11 10 1 4 18 8 4 14 6 5 6 5 9 10 11 11 12 10 6 8 7 8 11 14 12 12 16 16 22 19 12 26 13 14 11
15 15 12 10 13 13 16 20 21 17 14 16 10 5 9 10 10 7 7 8 9 10 11 10 14 15 16 14 11 9 8 10 12 18 16 14 19 16 21 13 14 21 18 18
16 15 17 13 14 21 19 17 22 22 15 11 11 6 3 5 5 5 5 9 9 13 15 16 13 13 18 17 14 14 14 13 12 10 10 14 11 15 17 22 12 8 6 3
16 15 16 14 14 20 25 15 18 23 24 17 13 7 4 6 6 10 9 11 12 10 15 17 19 18 20 24 21 20 20 18 15 6 11 4 9 10 11 15 12 12 11 9
15 14 16 15 13 13 16 14 22 23 25 20 16 11 7 7 5 8 7 1 7 8 10 14 14 18 21 25 26 27 23 24 18 8 10 19 28 7 7 2 7 10 17 13
15 12 14 16 14 13 15 13 19 25 21 18 15 15 12 11 9 6 3 8 7 9 11 8 4 5 5 4 6 6 15 24 25 13 4 3 9 10 13 12 9 5 21 19
16 15 15 17 18 17 18 17 19 24 26 18 14 9 14 12 8 6 7 7 7 7 10 6 8 8 9 7 9 11 10 19 31 27 13 13 27 14 6 11 7 10 21 25
18 19 19 19 19 19 20 20 23 22 21 16 12 15 14 13 7 6 6 5 4 9 10 10 9 6 8 11 15 14 15 9 19 26 15 14 25 16 12 11 18 17 16 17
16 16 17 16 18 18 22 24 21 29 24 17 18 16 16 15 16 12 12 6 4 3 5 11 6 6 6 11 12 14 15 19 9 13 17 16 15 14 14 13 16 20 19 20
17 16 16 15 16 18 21 23 20 24 31 23 25 19 11 20 19 17 17 17 14 6 5 3 5 5 7 9 8 17 20 10 9 13 11 17 19 13 13 17 19 18 19 18
14 12 13 15 16 17 22 23 21 22 24 28 22 9 16 20 18 20 19 18 18 19 7 3 4 8 9 12 14 15 11 5 9 9 16 13 13 8 14 15 15 9 6 3
13 12 14 14 15 14 18 18 20 20 21 9 15 20 11 14 15 16 15 17 13 19 15 9 7 8 9 12 11 2 3 9 9 6 3 11 13 11 2 5 7 5 2 3
14 11 10 13 16 17 16 17 15 14 15 20 10 11 14 13 12 21 15 15 14 14 14 12 11 8 12 10 2 3 5 8 8 12 6 4 5 6 6 9 9 10 9 9
16 12 13 13 18 18 18 14 10 13 19 17 10 8 10 12 13 21 21 17 13 12 9 14 14 11 8 10 12 6 7 9 10 8 7 5 7 11 11 6 7 11 9 9
19 15 15 16 18 19 21 16 9 11 15 14 7 7 5 14 19 16 17 22 16 18 15 16 13 7 8 5 6 7 10 10 11 10 12 12 14 14 13 13 13 12 14 15
25 20 21 20 24 26 25 20 12 8 14 11 10 10 7 16 18 17 14 15 18 16 14 13 8 11 9 10 11 11 11 13 15 15 16 21 17 14 17 18 20 19 18 18
29 33 31 28 28 24 22 25 16 13 14 19 22 11 14 17 17 19 14 11 11 6 10 6 9 17 16 18 18 18 18 19 19 23 24 21 19 19 21 22 21 22 21 22
39 37 31 28 29 23 22 10 15 13 11 14 21 20 14 12 17 18 14 6 7 6 8 10 7 15 20 21 22 21 21 20 19 17 18 22 24 25 24 24 23 22 21 19
40 38 30 31 28 11 10 13 12 8 12 8 13 23 16 7 14 10 16 6 7 4 5 9 5 20 19 15 13 14 16 18 20 22 23 23 22 21 20 20 21 20 20 19
31 33 27 18 9 10 10 15 15 14 13 14 12 17 17 10 5 4 7 6 5 3 6 5 7 4 9 12 14 16 18 18 18 19 20 19 19 18 17 17 17 16 14 13
34 15 14 7 8 11 8 20 25 19 15 15 13 13 11 12 11 3 4 4 3 4 4 4 4 6 8 12 15 16 16 15 15 15 15 15 14 13 11 11 10 9 7 6
13 10 8 10 10 16 12 19 21 13 13 18 18 16 9 8 4 6 5 5 4 5 4 6 7 9 11 13 15 14 12 10 9 8 7 6 5 5 4 4 3 3 2 2
15 6 9 10 18 20 17 20 19 14 17 19 16 12 6 7 5 7 6 4 5 2 4 7 9 11 8 3 2 3 4 3 3 3 3 3 2 2 1 1 1 1 2 3
6 10 11 13 17 18 20 20 20 22 19 22 10 8 7 7 6 6 5 5 7 6 7 6 2 2 3 3 3 3 2 2 3 3 4 4 4 4 5 5 6 7 9 10

GFSNW_700_spd_087.txt.gz
Wind_Speed
28 23 21 19 16 16 19 20 20 10 18 11 17 21 26 20 19 10 8 4 8 7 9 18 14 10 10 7 6 9 5 3 4 12 12 12 12 19 19 8 3 7 8 7
25 19 19 13 13 16 17 18 18 14 9 6 13 15 22 20 20 11 11 7 5 9 7 5 15 13 12 8 8 6 4 2 3 2 6 4 7 9 11 10 16 18 6 8
21 16 15 8 10 15 14 17 12 14 15 4 5 13 12 12 8 2 7 7 6 3 2 6 6 5 5 3 4 3 3 4 2 2 9 11 13 14 16 13 10 6 18 22
17 15 11 7 8 13 12 14 12 14 15 15 9 3 12 3 2 8 5 4 4 5 0 3 2 3 2 1 3 5 5 2 5 9 9 14 17 20 19 21 21 17 18 18
16 14 12 11 11 13 18 17 18 16 17 15 16 6 3 6 6 3 1 1 3 5 3 2 4 6 5 1 4 4 6 5 9 16 16 18 21 16 21 20 20 20 23 20
16 15 14 16 14 13 18 20 20 18 16 12 13 10 10 12 8 4 4 2 3 3 6 8 8 8 6 7 8 8 9 9 12 8 11 16 12 12 12 16 20 18 15 10
15 15 15 17 17 12 12 19 19 19 19 15 12 10 10 7 8 4 4 4 5 5 7 8 13 15 15 15 18 18 17 13 13 10 13 3 5 7 11 9 13 17 16 17
16 16 16 18 17 12 14 13 11 17 19 15 13 11 10 6 3 4 2 4 1 2 5 7 6 8 14 14 11 15 19 17 10 7 9 16 28 15 11 17 14 17 17 16
17 16 16 18 18 13 15 8 9 13 16 13 11 12 10 10 5 1 2 1 1 3 4 4 2 1 2 2 2 6 2 14 17 13 5 5 5 11 7 17 19 16 16 17
17 17 18 17 18 16 16 14 8 14 15 13 12 6 7 8 6 4 7 5 4 4 3 3 4 4 3 3 3 6 8 8 18 23 13 17 23 27 26 10 8 10 12 21
18 18 18 18 17 16 17 18 13 16 18 13 12 10 11 9 10 6 5 5 3 4 5 3 4 4 4 6 9 8 8 6 9 11 11 12 25 25 20 15 15 14 17 24
16 17 18 20 19 18 19 21 16 15 20 15 6 11 11 11 10 11 7 6 2 1 3 3 5 6 5 6 5 10 7 8 13 15 8 16 15 13 13 9 13 14 15 22
15 16 16 17 17 17 18 20 21 18 21 19 23 13 12 17 14 14 12 14 9 10 5 10 4 5 5 5 6 13 13 12 20 9 11 13 11 7 7 13 15 15 15 18
16 16 17 17 16 15 18 21 18 18 18 19 17 11 10 15 16 16 16 13 12 14 15 13 3 4 6 8 12 16 13 15 11 9 12 15 14 15 13 16 19 23 22 15
16 14 14 15 14 16 17 20 19 16 16 10 2 10 18 14 14 14 12 14 11 9 11 9 9 6 7 7 11 7 2 7 7 8 5 8 14 12 12 10 7 7 4 6
15 14 15 15 13 15 13 18 19 19 19 20 19 7 7 14 13 13 10 10 12 9 12 11 9 3 7 7 6 3 4 5 7 6 4 2 4 7 6 3 1 1 4 5
16 16 10 11 16 14 17 12 9 14 15 13 9 5 12 13 15 16 13 17 14 12 14 16 12 8 9 9 10 7 8 9 5 4 4 4 6 8 9 7 5 5 11 9
17 15 11 13 12 13 15 13 5 7 17 13 5 5 7 11 18 19 20 20 16 13 17 16 15 11 10 10 10 10 10 11 7 8 9 9 9 14 13 10 11 12 12 14
19 16 14 16 19 18 18 14 8 10 12 7 7 8 4 7 13 13 14 18 19 17 18 19 15 13 10 14 15 16 12 11 13 13 15 16 19 15 11 13 15 17 16 16
24 22 27 26 22 19 19 16 13 10 13 13 14 8 6 6 19 16 17 10 15 7 13 15 16 23 24 23 21 19 19 17 19 20 20 18 16 15 16 18 20 20 20 20
32 34 33 18 24 19 26 12 13 10 8 12 15 12 12 6 19 20 11 6 7 6 6 11 7 16 23 22 19 18 20 19 15 13 12 14 16 18 19 20 19 17 17 17
41 41 40 24 23 10 12 12 10 8 12 6 7 13 13 10 11 14 15 5 7 4 6 8 6 17 15 14 15 14 12 14 16 19 21 21 20 20 19 18 17 16 14 13
37 38 29 23 19 9 13 14 15 14 9 11 9 15 16 11 5 9 10 7 5 4 5 5 8 5 4 7 10 13 15 17 20 21 21 20 19 18 17 17 16 14 13 11
34 18 17 9 10 11 10 24 26 20 15 10 11 13 11 11 5 4 5 6 5 5 5 5 6 7 9 11 13 15 17 18 19 18 17 16 15 14 13 12 12 11 9 8
22 11 10 10 10 17 15 16 17 18 16 12 16 14 8 11 4 5 5 5 5 6 5 5 6 8 10 12 14 13 11 9 8 7 7 7 7 7 7 6 6 5 5 4
12 10 11 13 18 22 18 15 18 16 14 18 17 9 6 5 5 7 7 4 5 4 4 6 9 11 11 7 5 3 2 2 3 4 5 6 6 6 6 6 6 6 6 7
8 13 10 17 21 20 19 20 22 20 21 22 9 8 8 6 6 6 6 6 6 7 8 10 9 5 4 3 3 3 3 5 7 8 8 8 8 9 9 10 11 12 13 14

GFSNW_700_spd_090.txt.gz
Wind_Speed
24 26 25 21 22 19 19 21 18 12 19 13 20 21 20 17 16 14 21 16 10 9 14 14 9 14 7 10 12 13 9 7 7 4 2 1 2 6 8 5 3 8 10 14
22 23 21 16 14 12 18 19 11 13 19 11 14 13 14 14 20 13 15 17 10 10 15 9 12 12 19 7 12 7 9 6 6 9 9 9 8 4 1 8 12 10 5 8
20 20 16 13 10 12 14 17 19 16 13 17 16 22 12 9 12 6 9 11 7 3 11 9 12 15 14 12 12 12 10 10 9 6 4 3 4 6 7 11 8 12 17 28
19 17 14 12 11 12 12 14 16 21 17 15 22 19 18 14 4 5 1 2 10 8 5 10 6 8 11 7 10 7 8 8 4 3 1 6 9 11 11 16 21 19 29 29
18 16 12 12 12 13 12 15 18 21 23 16 17 17 18 19 9 4 1 6 9 8 7 6 4 5 5 4 5 5 7 4 3 6 7 9 13 14 14 15 17 23 26 28
17 15 12 12 13 16 11 13 14 20 21 18 13 15 19 16 10 8 8 4 4 3 7 5 3 4 3 2 5 7 5 3 6 3 5 10 9 5 6 13 15 17 21 19
17 15 14 13 13 15 11 9 13 17 18 15 10 10 10 9 10 8 2 3 2 4 5 7 5 5 7 8 7 9 8 8 5 3 6 2 3 10 10 13 15 17 17 21
16 16 15 14 15 12 12 10 11 13 15 11 7 8 9 4 4 5 3 2 2 4 5 5 4 2 2 5 7 6 6 6 3 2 3 12 17 13 4 13 19 18 18 16
17 17 15 14 15 13 14 10 9 12 13 7 5 6 7 6 5 2 4 4 4 6 6 6 4 3 3 2 2 7 9 5 7 3 1 2 2 4 11 19 27 13 16 17
17 16 16 15 15 15 17 13 12 12 13 4 6 6 3 4 5 5 5 5 5 6 5 4 2 2 1 1 1 3 6 4 7 10 5 8 14 19 21 13 15 17 18 15
17 17 17 17 18 16 18 18 13 14 15 13 13 8 7 8 6 5 5 5 4 3 3 2 1 0 1 2 2 4 2 3 3 1 5 9 9 14 11 13 13 16 17 10
18 18 17 18 19 17 17 17 14 11 18 13 6 3 6 8 7 7 4 4 2 2 5 6 1 2 3 4 2 2 2 1 7 8 11 27 25 18 12 8 8 9 12 10
17 15 15 16 17 18 19 16 16 16 24 17 14 11 12 12 10 10 9 8 7 6 4 10 4 3 3 2 2 6 8 9 9 13 2 11 14 13 5 7 9 6 11 8
16 15 15 14 13 14 18 20 14 14 23 19 14 8 4 9 14 12 12 11 8 8 10 10 5 2 4 5 7 11 13 11 8 3 2 6 11 14 10 12 14 13 15 17
17 15 15 15 14 16 17 17 15 15 16 8 3 0 8 13 8 11 11 11 11 7 6 7 8 5 5 5 8 8 5 4 6 8 5 2 4 1 4 4 8 8 8 13
17 16 15 14 16 16 14 17 19 19 19 16 17 10 12 13 19 12 12 9 10 10 7 11 8 4 5 5 5 3 3 4 6 4 3 3 4 4 7 6 4 5 6 7
14 16 15 14 16 16 16 13 12 11 13 19 12 9 10 6 11 14 14 13 10 11 13 15 13 11 9 10 12 8 6 5 7 6 5 5 5 7 10 13 11 10 11 12
18 18 15 13 15 14 12 13 10 7 13 14 7 6 10 11 12 15 16 13 13 13 14 16 14 12 11 9 13 14 12 13 11 9 8 10 10 11 14 15 14 14 15 14
22 20 16 16 14 14 11 12 8 7 12 7 7 8 8 7 10 12 13 14 16 15 18 16 11 15 11 13 13 14 14 15 13 13 14 15 18 19 21 19 16 16 18 19
25 21 22 19 16 14 11 12 11 9 12 13 7 10 7 3 7 9 12 10 14 7 12 15 20 27 25 22 22 21 19 18 18 21 22 23 23 22 20 18 19 20 22 22
30 26 26 17 18 14 16 11 13 10 8 11 13 13 11 7 9 16 7 3 6 5 8 6 6 15 18 18 22 23 21 19 20 21 17 14 15 18 19 19 20 21 22 20
34 27 26 25 15 10 11 11 10 8 10 6 9 12 17 11 8 14 12 7 7 4 6 6 5 15 16 18 18 18 18 15 14 15 16 15 15 15 15 15 15 16 17 18
35 33 24 22 14 10 11 15 12 15 6 11 9 12 16 11 3 10 7 6 5 4 5 5 11 12 11 9 10 11 13 15 15 13 12 12 11 10 10 10 10 10 11 12
36 21 20 15 9 10 11 20 26 18 15 5 10 11 13 11 3 5 5 6 4 5 6 6 10 10 10 10 10 11 13 14 13 12 10 9 9 8 8 7 8 8 7 7
18 12 13 18 17 12 10 15 21 16 15 11 8 13 8 11 4 5 5 4 5 5 6 7 7 8 9 10 12 12 9 7 6 6 8 8 9 9 8 8 7 7 7 7
14 11 14 24 11 19 16 14 16 17 16 12 16 9 7 7 5 6 6 4 5 5 7 7 8 9 11 10 5 3 4 5 6 7 8 10 10 11 11 12 12 11 11 12
9 14 21 26 18 21 22 18 16 16 16 21 11 8 6 5 5 6 5 7 11 10 9 9 10 7 3 2 2 4 5 7 9 10 12 13 15 15 15 16 16 16 16 17

GFSNW_700_spd_093.txt.gz
Wind_Speed
20 21 21 22 21 15 15 17 12 14 17 14 19 23 21 22 18 9 14 25 22 14 20 12 6 12 7 12 17 11 8 18 12 13 12 14 9 9 8 4 4 2 2 11
19 19 19 20 18 13 10 13 12 13 14 19 20 27 23 14 17 5 10 16 22 18 18 8 11 16 12 12 15 12 13 12 11 11 14 12 10 8 5 3 2 5 3 6
17 17 17 17 17 12 9 11 13 14 13 18 21 22 25 22 4 3 5 12 15 10 17 14 10 16 21 14 14 13 12 13 6 8 11 10 7 5 4 4 2 4 11 25
16 15 15 16 15 12 7 8 9 13 17 14 14 21 22 20 15 3 7 11 15 16 11 20 18 13 18 14 16 13 11 15 14 14 9 5 3 0 4 9 11 8 14 22
15 14 14 15 14 13 10 7 11 13 14 13 13 13 19 18 13 8 11 11 13 11 11 11 11 8 11 11 11 10 9 11 7 6 2 2 5 7 10 7 8 14 17 20
15 14 14 14 14 13 11 6 8 12 14 12 10 9 15 17 11 9 11 8 6 6 6 3 1 3 5 5 7 6 5 6 3 3 1 8 8 2 1 2 4 9 13 15
15 14 14 14 14 14 10 6 7 11 13 13 9 6 6 6 10 12 8 7 6 5 6 7 4 3 3 3 2 1 3 4 5 3 1 1 2 3 4 3 4 10 13 14
15 15 14 14 14 12 11 9 8 10 12 12 8 7 6 5 4 5 6 7 6 6 4 3 4 4 8 9 12 8 5 5 4 3 2 6 2 5 1 7 15 16 13 12
16 15 14 14 14 12 11 12 10 9 10 7 9 6 4 5 4 4 5 7 7 7 5 3 2 4 3 2 3 12 9 5 3 4 2 1 2 3 8 15 17 16 13 17
17 16 14 14 13 13 11 14 12 9 12 3 8 8 3 4 4 6 5 4 4 6 5 3 4 3 3 2 3 5 6 5 4 3 1 6 11 10 12 4 7 12 10 15
17 16 15 14 14 16 14 16 16 9 13 11 10 8 9 7 7 6 5 5 6 4 6 4 3 3 3 3 3 3 4 3 3 2 3 3 3 11 17 15 15 13 11 11
18 17 15 15 15 18 19 21 15 15 16 12 7 2 3 6 6 5 4 2 4 6 7 5 2 2 2 3 2 2 1 3 2 3 2 16 23 16 12 6 7 6 7 10
18 17 15 15 16 19 19 17 14 14 14 12 10 6 10 12 7 9 4 5 2 4 5 8 3 2 2 2 0 2 4 5 4 6 5 5 5 8 5 6 6 6 5 6
18 16 15 15 16 18 19 19 14 13 12 15 12 9 5 5 9 11 8 8 7 3 6 5 4 1 2 3 4 7 9 9 4 4 7 6 5 4 7 7 9 11 12 14
16 16 16 15 16 15 15 14 13 13 13 11 6 2 4 8 10 9 10 8 8 7 5 5 4 4 2 4 5 4 3 4 4 4 7 4 2 4 3 2 4 7 8 10
17 18 16 16 16 16 16 15 12 14 18 20 19 11 10 11 11 14 9 11 10 10 8 4 6 1 4 4 3 2 1 2 5 3 2 1 1 1 4 6 6 7 10 11
20 19 17 18 19 20 19 11 8 10 12 20 12 12 12 8 7 16 10 12 10 10 11 10 8 8 9 10 10 4 6 8 7 7 8 8 8 8 9 10 12 10 11 13
18 16 16 16 18 14 16 15 10 6 9 15 8 7 7 7 6 11 13 12 9 11 12 13 11 11 8 8 9 8 9 10 12 11 11 11 12 14 15 16 18 15 14 15
20 17 17 17 16 13 10 10 8 9 11 7 9 9 5 7 9 12 14 15 16 16 16 14 11 11 9 7 7 10 9 10 12 14 14 15 17 20 24 24 23 20 17 18
25 24 22 18 20 14 15 9 11 9 11 12 8 12 8 7 9 10 11 7 8 6 9 11 18 25 24 24 22 20 18 18 17 17 16 20 21 20 19 18 19 19 19 21
30 28 21 18 18 15 12 8 10 9 6 9 13 12 11 8 6 10 8 3 5 4 5 6 5 10 12 13 15 16 18 18 17 16 17 18 17 17 19 21 23 24 24 24
26 28 18 22 22 10 8 9 8 7 8 7 9 16 17 12 6 11 8 4 4 4 4 4 5 10 9 9 10 10 12 13 13 14 15 17 18 20 20 21 23 23 22 21
32 15 22 13 9 9 10 14 11 10 7 5 9 12 16 14 7 7 6 5 5 2 5 5 8 9 9 9 8 9 11 12 14 15 16 18 19 19 19 18 17 16 15 16
34 17 19 14 10 11 16 15 16 16 12 7 8 10 14 13 8 6 5 6 4 5 5 6 9 9 8 7 10 12 13 14 16 14 10 7 6 6 6 6 6 7 8 9
23 12 10 20 16 16 14 11 11 14 14 10 6 10 9 12 4 5 5 4 5 4 4 6 7 6 7 10 12 13 10 6 3 3 3 4 6 7 8 9 9 10 10 10
16 14 15 25 22 17 13 11 9 13 15 14 8 9 6 8 5 6 7 4 6 5 6 7 8 9 11 11 7 4 4 5 6 8 10 11 11 11 12 12 13 13 14 14
22 17 20 25 23 19 16 20 15 16 18 16 9 8 6 5 6 6 6 8 9 10 9 8 9 10 7 4 4 5 7 9 11 12 13 14 15 16 16 16 17 17 18 18

GFSNW_700_spd_096.txt.gz
Wind_Speed
16 16 15 16 14 16 17 16 14 18 16 15 21 16 20 23 15 12 11 19 27 30 29 15 3 9 8 15 21 13 11 11 24 15 14 15 14 12 11 7 4 2 1 1
16 15 15 14 11 13 13 10 12 15 12 16 19 20 17 15 11 6 8 14 24 28 25 10 12 14 12 17 22 16 15 17 16 12 11 11 10 10 9 8 5 5 2 4
15 15 14 13 11 11 11 7 8 13 9 13 16 20 20 16 10 9 12 21 19 24 24 26 25 19 17 18 18 13 9 7 6 7 15 17 12 11 7 4 3 3 8 13
17 15 14 13 10 8 9 8 7 10 10 10 11 14 17 18 11 14 13 13 18 23 25 23 28 25 20 15 15 19 18 17 17 18 16 13 11 7 4 4 4 5 6 15
14 13 12 12 11 9 7 8 7 8 8 7 6 9 13 15 12 11 12 13 13 14 14 14 15 18 16 17 17 18 19 10 9 13 9 8 5 1 2 4 3 5 7 9
15 13 13 13 12 10 7 8 8 6 6 6 4 4 8 12 14 12 11 13 12 11 11 10 8 6 8 9 9 9 7 3 3 4 3 1 5 6 3 3 3 3 7 10
15 13 14 13 13 10 7 8 8 3 6 8 6 5 5 4 7 11 10 11 10 9 11 10 7 6 6 9 5 4 5 4 3 2 1 3 4 4 6 5 4 6 8 11
15 14 14 14 13 11 7 8 10 5 4 5 9 7 5 6 6 4 7 7 9 10 8 6 5 6 6 12 15 6 5 4 4 2 3 8 6 5 4 6 6 11 12 8
16 14 15 14 14 11 8 10 13 7 3 5 4 8 8 6 7 6 5 7 7 10 9 6 4 3 2 4 4 10 6 5 2 2 2 2 4 4 7 5 3 5 9 7
17 16 15 14 13 12 10 11 14 10 7 3 7 8 8 8 8 7 6 5 6 7 7 5 4 3 2 2 2 5 4 4 5 3 3 4 1 1 7 3 5 17 14 8
18 17 16 15 15 13 13 8 13 12 10 9 8 3 4 5 7 6 6 5 5 3 6 4 4 3 4 2 2 2 2 2 3 3 2 2 2 11 8 7 10 11 8 7
18 18 17 16 15 14 15 14 11 13 15 9 6 3 4 4 6 6 4 2 2 3 5 4 2 2 3 3 1 3 1 3 1 1 0 8 14 7 6 4 6 5 4 7
18 19 17 16 15 15 17 16 8 15 14 12 8 3 9 10 9 6 3 5 2 1 3 5 3 2 3 2 2 2 4 3 1 3 4 5 5 7 5 3 5 3 1 5
19 18 16 15 15 17 17 14 15 13 12 8 6 10 9 4 4 8 8 8 6 4 3 3 3 1 2 3 3 5 5 7 2 3 7 6 5 5 3 4 5 7 8 7
20 18 16 14 16 17 16 13 14 15 12 7 3 1 5 5 8 8 8 8 6 6 5 4 4 4 3 4 5 4 3 2 5 5 3 5 3 3 2 2 4 6 6 7
21 18 15 16 17 17 13 14 11 12 15 15 12 8 10 10 11 9 8 10 10 9 9 6 6 3 3 3 4 3 2 2 2 1 1 1 2 3 4 5 7 9 10 11
20 18 18 18 18 19 20 11 9 10 13 17 13 11 11 10 10 9 14 9 9 9 10 11 10 7 6 8 6 4 5 7 8 8 6 7 7 8 9 10 11 13 14 13
22 23 19 19 18 18 20 16 7 4 7 16 9 7 8 5 5 7 13 9 10 10 9 11 9 9 8 6 6 5 7 8 8 10 12 13 12 11 12 15 18 19 19 18
25 20 14 15 21 20 17 17 13 11 10 8 10 9 5 6 8 8 9 9 9 11 14 14 8 11 8 7 6 6 9 10 11 12 13 14 17 18 19 20 19 17 16 15
28 20 21 21 22 15 16 16 18 11 13 15 11 10 9 5 7 9 7 8 9 6 9 8 13 18 20 21 21 21 20 19 18 18 17 17 17 18 20 19 19 19 19 19
22 25 20 19 21 17 16 10 11 10 6 9 12 12 13 9 9 8 7 3 3 3 5 5 5 10 10 13 15 15 15 16 17 18 17 17 18 17 18 19 21 22 21 20
24 15 27 22 17 10 7 9 8 7 8 8 10 17 15 13 8 7 8 5 4 4 5 4 4 8 6 7 8 8 7 8 10 11 12 14 16 18 19 20 21 20 19 20
21 17 27 15 16 11 10 13 11 10 7 1 8 15 19 14 9 6 6 5 6 3 4 4 9 8 7 7 7 7 8 9 11 12 14 16 16 15 13 12 13 13 14 15
22 14 17 13 9 10 13 14 12 10 8 4 5 8 14 14 11 5 4 6 4 3 4 6 8 8 7 6 6 9 10 12 13 11 8 7 8 9 11 12 13 14 14 15
21 8 10 17 13 11 10 9 9 11 12 7 5 10 10 15 6 6 5 4 5 5 6 6 5 4 4 7 10 13 12 8 6 6 8 9 11 12 12 13 14 14 15 16
15 15 12 18 20 14 10 11 8 9 13 13 9 8 6 8 5 4 6 4 4 5 5 7 6 7 8 11 8 4 4 5 7 9 11 12 14 14 15 16 17 18 19 19
12 24 20 12 16 17 13 10 11 10 17 17 9 7 6 5 5 5 5 6 8 8 8 7 7 8 6 3 3 5 6 9 10 12 13 14 16 17 18 18 18 19 19 19

GFSNW_700_spd_102.txt.gz
Wind_Speed
24 20 16 13 11 10 8 8 5 10 10 7 8 8 11 15 13 12 11 13 21 28 31 26 21 36 25 8 19 10 7 3 5 15 6 15 15 18 20 6 1 7 4 9
24 20 16 13 12 10 8 7 8 7 8 3 4 7 7 11 14 12 14 11 21 30 25 18 25 38 19 23 9 4 2 1 2 6 7 17 10 12 18 10 8 3 2 5
23 20 16 14 11 10 9 7 3 8 7 6 4 8 6 12 10 10 17 14 22 23 18 25 23 36 28 18 2 5 4 6 8 6 2 11 9 16 20 7 4 5 11 8
23 20 17 14 13 13 9 8 5 5 3 2 7 6 7 11 14 11 12 14 19 22 18 27 30 32 30 11 2 6 4 8 1 8 8 10 7 11 10 13 10 6 10 11
23 20 17 15 15 12 11 9 5 6 5 5 4 7 6 9 11 12 12 17 20 17 17 18 26 26 21 18 11 8 10 9 12 10 22 18 23 17 16 10 11 14 15 19
21 19 17 16 14 13 11 11 8 5 8 2 5 5 8 12 13 8 11 17 20 15 16 9 14 12 11 16 13 12 17 10 11 14 18 13 23 16 15 20 23 21 21 14
21 20 18 17 15 13 12 13 9 6 5 1 5 7 8 10 11 13 14 16 17 18 13 5 11 11 7 13 9 12 11 7 3 6 4 6 11 16 21 19 18 16 15 11
22 20 18 16 14 13 13 12 9 7 8 2 5 6 8 10 8 9 13 14 19 17 12 12 8 6 4 2 12 11 9 10 6 5 6 17 9 7 16 12 12 11 12 11
21 19 18 15 14 13 13 11 8 9 9 5 5 3 7 7 10 10 10 17 15 14 11 8 5 4 8 5 1 10 10 5 4 3 5 0 5 3 3 3 9 13 11 7
20 19 16 15 14 13 14 10 9 9 12 7 5 4 6 5 8 10 11 16 10 9 7 9 6 5 8 7 10 14 13 10 12 8 5 5 10 1 2 2 5 11 11 8
20 19 17 15 13 14 13 8 9 10 12 14 12 9 5 6 6 9 12 7 9 5 6 6 6 5 7 6 8 11 9 10 9 10 7 4 13 5 2 4 4 5 6 8
20 18 16 14 13 13 13 10 9 11 9 7 9 9 6 9 7 10 3 6 8 7 5 6 5 4 5 8 5 9 7 9 3 6 3 8 10 10 6 2 2 2 4 4
18 17 15 13 13 13 13 12 9 9 8 6 9 10 12 7 8 8 3 3 6 5 6 7 7 4 8 6 6 5 7 7 6 6 5 6 7 5 4 3 5 2 6 7
18 17 15 14 13 12 13 12 8 10 5 4 1 6 8 8 6 3 5 7 9 6 6 5 7 6 3 7 6 4 6 6 2 4 3 5 5 4 4 3 3 5 6 7
18 17 17 14 13 12 12 11 7 9 7 6 6 8 7 6 5 7 7 8 9 5 7 5 7 8 8 6 5 5 5 5 1 2 4 2 1 2 4 5 5 7 7 8
18 19 17 14 14 13 13 12 7 8 11 8 5 5 4 6 9 11 11 10 8 8 6 7 7 6 7 4 5 3 3 5 4 3 4 4 3 4 5 5 5 6 9 12
20 19 16 15 16 15 13 9 7 8 10 7 5 4 5 5 6 8 11 9 8 8 7 8 8 9 8 7 5 4 6 6 5 4 5 4 5 7 8 8 9 10 12 14
19 18 16 17 17 16 16 16 8 6 7 8 4 6 8 8 9 4 5 5 8 7 8 8 6 6 5 3 7 6 4 3 4 4 6 8 10 11 12 14 15 16 15 15
21 19 17 17 17 17 19 15 12 8 10 4 6 8 7 2 3 3 3 5 6 5 7 4 3 4 4 7 6 6 6 7 10 12 15 15 15 15 15 16 16 17 17 17
23 20 18 14 15 16 17 16 14 12 10 16 17 12 10 7 5 5 5 4 4 5 5 4 6 9 14 12 14 17 18 19 19 20 17 14 15 16 16 16 16 16 17 18
28 26 16 12 12 13 12 11 11 9 8 14 16 15 11 8 7 8 3 2 2 3 3 3 2 7 9 11 11 12 12 13 13 13 13 13 14 14 15 16 17 18 19 19
32 22 13 13 15 9 9 11 9 8 10 11 8 7 11 8 7 2 1 4 3 3 1 2 2 4 5 6 6 6 6 7 8 10 11 14 15 17 17 17 14 13 13 14
29 23 19 15 12 10 11 14 12 12 8 6 7 12 11 10 8 4 3 2 3 3 2 3 5 5 7 8 7 6 6 8 10 13 14 15 13 10 10 12 13 15 16 17
24 14 12 12 10 10 8 16 15 14 10 5 3 8 9 9 7 3 2 3 2 2 2 5 4 6 7 5 6 7 9 12 13 10 8 8 10 12 14 16 18 19 21 22
14 8 9 14 10 12 13 7 12 10 8 7 4 7 6 10 4 3 3 2 3 3 5 5 7 8 9 8 10 12 12 9 7 7 9 12 14 16 17 19 20 21 23 23
6 7 9 17 15 15 14 10 10 10 10 8 6 6 5 6 4 4 4 3 3 3 5 8 9 11 9 9 11 9 6 7 9 11 13 15 18 20 21 22 23 23 24 24
6 7 14 22 17 13 9 11 8 9 11 12 6 6 5 4 4 4 5 6 6 8 9 10 9 9 10 11 7 7 8 10 12 15 17 19 20 22 23 23 22 24 23 24

GFSNW_700_spd_108.txt.gz
Wind_Speed
49 47 42 38 36 29 24 20 16 13 10 9 10 5 6 1 3 2 5 4 12 19 24 16 15 21 19 17 19 20 9 8 7 10 14 14 6 4 8 2 1 6 3 5
49 41 43 39 32 28 24 19 16 13 10 10 13 9 7 2 2 3 6 7 12 17 20 12 15 20 23 15 16 18 13 6 9 8 11 7 11 11 8 11 12 6 5 5
42 44 41 35 31 27 24 21 15 14 12 12 11 10 9 5 2 1 1 5 12 16 21 17 13 26 25 10 14 13 7 8 11 8 18 24 11 6 8 13 4 20 18 18
43 41 37 34 30 27 24 20 15 12 11 11 9 8 7 5 2 1 4 6 10 16 18 21 15 26 26 8 13 10 10 9 11 8 7 12 12 18 10 14 11 20 21 23
42 36 35 32 29 26 23 22 15 15 11 8 7 5 3 1 5 7 5 10 12 14 15 19 28 24 14 14 17 17 12 16 17 29 36 39 37 39 41 38 29 27 24 22
36 36 34 31 27 25 24 20 15 12 13 13 8 6 5 4 7 2 4 10 16 16 13 18 17 10 12 12 15 16 16 19 14 4 8 7 31 26 32 29 27 21 23 18
34 34 32 29 26 24 21 16 14 13 15 12 9 8 8 7 5 5 9 13 17 16 15 14 11 11 4 7 12 7 13 16 5 5 4 6 10 9 24 26 22 19 17 15
31 32 30 27 25 22 19 17 15 16 19 18 14 14 12 8 9 10 14 17 21 20 12 8 2 4 3 7 9 20 8 8 2 3 9 15 16 13 12 18 23 16 12 10
30 29 27 25 23 22 19 17 15 16 19 20 16 13 9 6 8 10 13 14 16 13 6 4 5 3 9 4 5 9 3 8 5 3 5 4 12 4 6 10 17 15 10 8
28 27 25 24 23 20 18 15 14 16 18 17 17 13 7 6 6 8 9 9 2 2 2 4 6 4 7 6 9 15 8 7 15 14 6 7 11 6 6 4 3 9 10 12
27 25 24 23 21 19 16 13 13 14 14 10 10 9 6 5 4 7 9 3 5 3 4 4 3 2 8 6 13 7 15 7 9 6 5 3 14 4 5 9 7 5 5 7
24 25 24 22 20 17 14 12 10 11 11 8 8 8 7 5 5 4 6 3 5 6 5 4 2 7 5 10 4 9 8 11 7 6 7 7 9 13 10 8 6 4 5 6
25 24 23 21 18 15 13 11 10 10 10 7 7 6 6 6 3 2 1 2 3 6 4 3 3 4 7 7 8 7 6 8 5 4 6 6 7 7 7 6 3 3 5 7
24 23 21 20 17 15 14 12 10 11 9 8 8 6 6 7 5 2 1 2 4 5 4 2 2 3 5 6 6 6 5 4 6 7 5 6 5 5 4 3 3 4 6 7
21 21 20 19 17 15 14 13 11 10 10 12 11 7 5 2 3 4 3 3 5 5 4 4 1 2 3 5 1 4 5 4 3 3 6 5 4 3 2 3 3 3 4 7
21 21 20 18 17 16 16 14 11 9 10 11 9 10 6 5 6 3 6 9 8 6 4 4 3 3 1 2 3 6 6 6 5 4 4 3 2 2 2 3 4 6 8 8
21 21 20 18 17 16 16 14 11 10 11 11 10 6 5 6 4 4 7 6 4 4 3 2 2 5 2 1 2 3 1 2 2 2 2 1 2 5 6 7 6 6 10 12
19 20 19 17 16 15 13 11 11 10 12 10 5 8 6 3 3 3 1 1 1 2 2 1 3 6 4 3 5 3 1 2 2 2 1 4 7 9 11 12 12 11 11 13
18 18 18 16 15 15 13 14 11 12 11 7 6 9 5 2 2 3 0 1 1 2 2 5 6 6 4 4 3 1 2 1 4 7 9 11 10 9 10 12 13 13 13 13
19 19 16 15 16 16 14 12 10 10 10 7 5 8 6 1 1 3 0 2 2 2 2 6 5 7 7 7 8 8 8 9 10 11 10 6 5 7 10 11 13 14 14 13
20 19 15 17 17 15 13 8 8 7 4 5 8 8 8 4 3 2 2 1 1 1 3 4 3 6 8 7 9 9 9 9 9 7 6 6 7 9 11 12 11 8 9 11
23 19 16 19 16 8 5 8 5 5 6 5 7 5 7 11 6 5 4 2 2 2 6 3 4 5 2 2 3 5 3 2 3 4 5 7 8 7 5 6 8 10 12 14
29 21 17 14 8 7 9 10 10 7 4 5 7 6 8 11 10 4 4 3 3 3 4 3 3 2 1 2 2 1 1 2 5 7 6 4 4 6 9 10 12 14 15 17
28 14 14 9 7 8 8 14 11 8 8 4 5 7 8 8 11 5 3 5 4 3 4 3 2 2 1 1 1 1 3 6 5 4 4 6 8 10 12 14 15 16 17 17
17 8 8 9 8 12 13 8 11 11 10 9 7 10 10 12 6 5 4 5 3 4 4 4 2 1 3 2 2 3 4 2 3 4 7 9 12 13 14 15 16 16 17 19
13 7 8 13 14 12 14 9 8 12 11 11 10 8 6 9 5 5 4 4 3 2 3 2 3 3 3 2 3 2 1 2 5 8 9 10 12 13 15 16 17 19 21 22
12 7 6 9 18 14 15 12 11 14 13 15 7 5 5 5 5 6 7 5 6 2 3 2 4 4 4 3 2 1 2 4 6 7 9 12 14 16 18 20 21 22 22 23

GFSNW_700_spd_111.txt.gz
Wind_Speed
47 46 49 52 51 49 44 35 31 29 22 19 20 14 12 9 5 3 1 1 5 9 14 16 10 17 14 23 21 22 8 10 13 21 17 17 18 16 13 8 0 4 5 6
54 54 55 55 52 45 38 34 30 28 24 21 20 16 13 9 7 7 4 2 5 10 13 12 11 16 26 20 14 15 14 7 11 12 6 13 19 20 13 10 8 8 1 5
56 57 58 52 45 45 39 35 28 27 26 21 19 16 13 10 9 8 5 2 5 11 10 8 14 19 22 9 11 14 10 10 11 14 25 26 19 8 13 11 3 20 15 16
56 57 52 47 48 40 37 33 27 25 27 23 19 16 13 13 11 8 8 4 6 10 11 16 7 22 23 4 15 14 14 10 21 25 22 29 30 14 10 14 13 12 17 17
57 51 46 46 41 37 35 33 26 23 16 18 19 17 15 14 12 10 8 10 11 9 12 14 21 21 18 15 16 16 13 10 3 13 18 37 37 34 40 33 22 20 19 18
48 43 49 44 37 35 33 29 22 21 21 21 18 15 13 10 7 6 11 13 13 13 13 16 15 15 15 16 16 18 11 16 10 7 13 8 25 29 26 26 21 17 19 14
43 49 41 36 34 33 29 26 21 20 20 19 15 13 11 9 8 9 13 12 13 14 14 13 11 7 8 11 8 19 12 13 5 3 4 5 6 7 19 18 17 17 15 12
42 38 34 35 32 30 27 22 20 19 21 20 17 15 10 6 6 9 10 11 16 16 7 8 2 2 4 10 7 12 9 10 4 3 10 11 7 8 15 18 17 10 6 4
36 31 36 33 31 26 24 22 20 19 19 20 16 12 7 6 6 8 9 12 13 9 6 3 2 2 6 5 5 7 10 13 3 4 4 2 8 1 11 13 12 10 5 5
33 35 32 29 26 24 22 20 20 20 19 18 15 12 7 6 5 5 6 6 5 3 4 4 1 1 6 5 8 12 5 6 13 10 5 4 6 6 10 1 3 8 7 6
32 31 30 27 24 22 20 18 19 20 18 13 14 10 8 6 4 3 5 4 2 1 2 2 2 1 4 2 8 4 10 6 5 4 4 2 7 9 3 11 8 5 6 7
32 30 28 26 22 20 18 17 18 18 17 11 12 12 11 8 4 2 2 2 4 4 3 2 1 1 3 4 3 9 4 7 5 4 6 8 11 11 10 9 6 5 5 7
29 27 26 21 20 19 18 17 17 17 16 12 11 11 10 8 5 1 1 3 4 4 2 1 2 2 3 4 5 4 5 6 4 3 7 7 8 10 8 5 3 4 6 7
28 25 25 24 22 20 18 17 17 16 16 11 12 9 8 7 5 2 4 2 2 2 1 1 2 4 1 2 1 2 3 1 5 6 6 7 7 6 5 5 4 5 5 7
27 27 26 23 21 20 19 17 17 15 14 13 14 12 10 8 7 6 3 1 2 2 1 1 2 2 3 2 2 2 3 3 3 3 4 6 6 5 3 4 5 5 6 8
27 26 25 23 21 20 19 17 16 15 12 17 14 12 11 8 9 6 4 6 7 5 3 3 4 5 2 1 3 5 5 5 5 5 4 4 4 4 4 3 4 5 8 11
25 25 23 22 21 20 18 15 16 15 16 15 10 11 10 10 8 6 5 6 3 5 4 4 4 7 4 4 3 5 3 3 3 3 3 4 2 3 4 4 6 9 11 13
24 24 22 20 19 17 15 13 14 14 16 15 7 9 10 8 6 3 1 0 1 3 5 4 5 8 7 4 5 3 3 3 3 3 1 2 5 8 8 7 8 9 10 12
23 23 21 18 17 17 14 13 13 15 13 9 10 13 8 6 5 5 2 2 1 2 3 6 6 7 6 6 5 5 3 1 1 4 7 8 9 7 8 8 10 11 11 12
22 21 20 19 19 16 14 11 10 12 10 7 13 11 9 6 5 5 3 2 3 3 3 5 6 11 9 9 5 3 4 5 4 5 6 6 6 7 9 11 12 13 12 9
23 23 20 20 19 16 13 8 8 7 6 8 12 10 7 5 4 3 2 1 2 1 2 4 3 4 7 8 6 6 6 7 8 6 4 4 6 8 10 10 8 8 10 11
23 20 19 22 16 7 5 8 6 6 6 9 12 11 9 8 6 4 3 3 2 1 4 3 4 3 5 5 5 4 5 4 3 2 4 6 7 6 5 7 10 12 14 16
21 23 21 13 6 6 8 10 8 6 9 11 12 9 8 11 9 3 3 2 3 2 4 4 3 5 4 3 3 3 3 2 3 5 4 2 2 5 8 10 12 14 16 18
22 11 12 6 6 8 6 11 9 9 8 11 9 8 8 9 11 4 3 4 4 4 4 3 4 4 3 3 4 4 3 3 3 1 1 3 6 9 12 14 15 17 18 19
11 8 6 8 9 11 11 10 12 9 8 7 6 8 7 9 5 5 4 4 4 5 4 6 3 3 3 3 3 4 4 2 2 1 3 6 8 10 12 13 15 17 19 20
10 6 9 13 11 10 11 9 14 12 11 10 9 7 4 7 4 5 5 4 5 3 6 4 3 3 4 4 5 5 4 3 1 2 5 7 8 10 13 16 18 20 22 24
7 9 9 10 12 9 10 11 12 13 11 13 7 6 5 4 6 6 7 5 7 7 3 4 3 4 5 6 5 5 4 2 2 4 6 8 10 13 16 19 21 23 25 26

GFSNW_700_spd_114.txt.gz
Wind_Speed
67 59 55 55 53 50 54 47 41 38 38 31 30 27 21 17 13 10 7 6 4 3 6 7 3 6 12 17 20 18 13 13 23 35 20 17 20 13 15 7 2 3 4 5
55 54 60 67 59 58 57 49 40 39 35 33 30 25 21 17 15 12 9 7 5 4 6 5 5 7 12 18 13 16 13 8 15 16 7 12 17 23 20 16 14 5 4 4
54 57 54 75 60 52 54 50 39 40 37 32 28 27 22 18 15 14 10 7 7 5 4 4 7 7 11 11 9 17 12 15 9 6 7 17 14 8 1 6 5 12 14 13
52 48 61 46 57 58 59 46 35 40 40 35 26 22 16 21 17 15 11 9 10 9 4 9 2 11 13 10 10 17 14 4 7 16 20 22 25 24 20 17 13 11 14 16
59 71 58 54 63 62 54 41 36 39 17 33 27 24 21 21 19 13 13 13 11 11 11 10 13 14 14 16 12 19 12 6 14 9 9 15 33 29 25 25 21 22 18 15
56 59 64 65 62 52 49 37 34 33 26 29 25 26 21 21 17 14 14 13 12 12 13 14 12 12 12 10 12 13 9 14 17 3 3 8 9 24 23 25 20 17 18 15
52 51 63 56 48 47 39 36 29 25 25 25 25 22 20 18 13 11 9 10 11 9 12 12 10 7 5 6 7 10 13 15 10 5 1 4 5 8 15 19 18 17 14 13
53 59 46 48 45 38 35 28 26 21 21 24 23 22 19 14 9 9 8 10 10 10 7 5 3 4 4 4 4 7 13 18 9 2 5 6 3 4 8 14 13 8 8 8
47 47 42 41 39 32 31 31 22 20 19 26 21 19 15 11 8 7 7 9 7 7 3 3 2 1 2 1 3 4 14 13 5 6 2 2 1 6 7 9 10 9 8 7
36 43 38 32 31 33 28 23 22 20 20 22 19 16 12 9 8 6 6 7 6 4 3 4 2 3 1 2 4 4 3 6 9 9 4 3 3 6 5 2 2 6 7 7
39 31 30 34 31 29 26 23 22 21 19 19 19 14 9 8 7 7 4 4 3 3 5 4 4 3 2 2 5 3 8 4 6 4 4 2 1 9 2 8 7 4 5 6
29 33 35 30 30 24 23 22 21 19 20 17 18 14 10 7 6 3 2 3 4 4 4 3 3 3 2 3 3 8 4 6 4 2 4 8 8 5 11 8 5 5 6 6
33 34 30 31 24 21 21 21 20 20 20 15 15 14 11 8 6 4 3 6 6 5 4 3 3 3 3 3 4 3 4 5 2 3 7 7 10 10 9 6 4 5 5 5
33 32 32 27 24 22 21 20 20 21 22 13 17 13 11 9 7 5 5 6 4 3 2 2 3 5 1 2 1 1 2 2 2 5 7 7 7 7 7 5 3 3 3 5
33 31 29 26 20 20 20 19 19 19 19 16 19 15 13 12 9 6 6 4 3 2 2 3 4 2 2 1 2 2 2 4 3 3 7 5 6 5 5 3 1 1 3 6
29 27 24 25 20 20 20 19 19 19 13 21 20 16 14 10 8 8 5 4 4 3 4 4 4 5 4 2 2 3 3 3 4 4 6 6 5 3 1 2 4 6 8 9
25 26 27 22 22 21 20 18 20 20 16 19 17 14 13 11 10 7 4 4 4 5 5 5 5 7 6 4 3 5 5 4 3 4 5 5 4 0 3 4 6 8 9 10
26 24 23 22 21 20 16 15 19 19 20 16 9 11 14 12 9 5 3 1 2 4 5 4 5 7 8 4 7 7 6 6 6 4 4 2 3 5 4 4 4 6 8 10
24 23 22 20 19 19 15 16 18 19 15 9 9 15 11 10 7 7 4 2 1 2 4 5 5 8 7 7 6 4 4 4 3 4 5 6 7 6 5 6 8 10 11 12
23 23 22 21 19 17 16 16 16 17 11 9 11 13 11 10 10 7 3 2 3 3 2 3 6 9 12 6 7 6 5 5 5 4 5 5 5 4 6 8 10 10 9 10
25 25 22 22 20 18 11 10 8 9 8 10 15 12 12 9 8 8 4 3 3 2 1 2 3 3 7 8 8 8 8 6 5 4 2 2 3 5 7 6 6 9 11 13
24 22 22 22 15 7 5 9 8 7 7 14 17 13 11 9 8 4 4 3 2 1 2 3 4 4 6 8 7 5 4 4 2 1 2 4 4 3 4 7 9 12 14 15
20 26 21 14 5 5 6 7 8 7 13 18 18 14 11 10 7 4 3 3 2 2 2 4 3 5 6 5 5 6 5 4 3 3 2 1 1 4 7 9 12 14 16 17
28 11 11 5 5 5 7 13 13 13 14 15 16 12 9 10 10 4 3 4 3 3 4 3 5 5 5 4 5 5 4 3 3 2 3 0 2 5 8 10 12 14 16 18
11 8 5 6 7 13 15 16 15 14 15 14 12 10 7 10 5 5 3 3 4 4 3 5 5 3 3 3 4 5 5 4 5 4 3 2 4 6 8 11 14 17 20 21
6 5 10 11 11 12 14 16 13 12 12 13 10 7 5 6 4 5 6 4 4 3 5 7 4 3 3 3 4 5 5 6 6 4 3 3 6 8 10 13 16 19 21 23
6 9 9 9 10 10 11 11 16 14 13 12 6 6 4 3 4 5 5 4 3 7 6 5 4 3 4 5 6 6 7 7 6 4 4 6 7 10 13 16 18 22 24 27

GFSNW_700_spd_117.txt.gz
Wind_Speed
65 61 64 67 67 57 48 53 52 42 46 43 40 41 24 26 26 22 16 12 12 9 7 4 5 5 2 10 10 8 7 9 12 26 12 7 11 15 19 9 3 4 4 4
68 68 72 70 67 50 51 65 50 41 47 41 40 29 28 24 24 20 17 14 12 8 8 4 6 4 1 8 6 9 11 5 12 11 6 20 15 15 21 21 19 8 3 4
68 72 74 68 65 51 55 57 36 44 46 45 38 32 30 26 20 18 16 14 11 9 7 6 7 4 1 5 5 8 13 8 7 1 6 12 19 12 5 12 4 10 10 9
67 70 69 64 58 50 64 60 43 55 57 52 39 34 29 29 24 21 19 16 13 11 7 7 7 6 4 4 2 8 9 4 7 17 16 15 15 23 13 12 12 8 14 13
56 60 56 55 54 60 63 64 47 51 26 46 37 35 27 28 26 22 23 16 15 12 9 8 7 6 6 2 3 7 6 2 10 15 3 3 22 15 18 22 22 22 16 13
46 46 43 44 61 62 70 68 48 50 35 45 37 35 31 27 25 19 17 15 13 12 10 10 9 9 8 9 6 2 5 8 11 4 4 1 4 16 16 16 16 16 14 11
33 38 44 55 59 56 61 50 40 50 42 42 38 33 29 24 24 18 16 16 14 10 9 8 8 8 6 7 6 6 6 9 6 6 7 2 3 3 9 13 13 11 10 10
49 42 56 61 64 60 41 34 45 44 33 39 35 29 27 24 21 18 14 14 10 8 6 4 4 6 5 6 5 2 3 7 6 4 3 8 5 6 5 6 9 9 9 9
62 59 61 65 56 42 40 38 30 35 32 34 30 29 25 25 21 17 15 11 7 6 6 7 7 5 6 5 3 3 5 5 6 3 3 4 6 8 10 6 5 7 8 7
39 47 57 62 54 41 34 29 29 30 27 30 26 26 28 23 20 16 13 9 7 6 7 8 6 5 4 4 3 6 3 4 3 2 1 2 3 11 8 2 3 5 6 6
51 53 50 44 43 36 30 27 28 25 24 31 26 22 18 17 16 13 11 9 8 7 9 7 6 5 5 5 2 3 2 1 2 1 1 2 1 13 7 8 8 5 7 7
41 45 42 37 31 31 33 30 26 22 20 30 26 21 16 13 11 10 9 7 9 10 9 8 6 6 6 4 4 3 1 2 1 2 3 3 6 8 14 10 7 6 7 7
39 33 29 31 32 31 27 23 23 24 20 29 25 19 15 12 11 8 6 9 9 10 10 9 8 6 8 5 3 4 2 2 1 2 3 7 8 10 10 8 7 6 6 6
30 32 33 31 30 26 24 22 23 23 26 25 23 17 14 12 10 8 9 10 9 9 8 8 7 9 8 6 4 4 4 4 2 4 5 6 6 6 6 6 5 4 4 4
36 33 31 30 25 25 24 22 23 21 20 26 25 19 16 14 11 9 10 9 7 7 7 7 8 8 6 6 5 4 5 5 4 4 6 4 6 6 4 2 2 2 3 5
34 32 31 25 22 21 21 24 22 19 13 25 27 20 17 14 11 10 8 7 6 6 7 6 7 7 6 5 5 5 5 5 4 4 6 7 6 5 2 0 1 3 6 7
34 30 27 24 22 20 21 23 25 22 14 24 24 17 17 14 12 10 7 5 4 5 6 6 6 7 7 5 5 7 5 3 4 5 6 7 5 2 2 4 5 6 7 7
28 28 27 22 16 18 17 20 22 22 21 18 11 13 16 15 13 8 5 4 5 5 6 6 6 7 8 5 8 8 8 6 5 4 5 5 2 3 4 4 3 5 7 8
26 25 26 19 18 18 17 20 22 22 14 8 10 22 19 17 12 10 7 6 6 5 5 5 5 7 6 7 6 5 5 7 7 7 6 6 6 5 4 3 4 6 6 5
25 24 24 24 21 18 21 21 21 19 10 7 16 17 17 16 14 11 7 5 5 4 3 3 5 8 10 5 6 8 8 7 6 6 7 7 6 4 3 3 3 3 5 7
23 25 24 25 23 23 16 13 9 9 8 11 18 14 18 16 12 11 5 5 5 3 3 2 2 2 8 9 8 8 9 8 7 7 6 5 3 2 1 1 3 6 8 10
22 21 26 26 20 9 7 11 10 8 8 20 20 18 14 16 14 6 6 5 4 3 3 3 3 5 8 10 10 8 7 7 5 5 5 3 3 3 2 2 5 7 9 11
21 27 19 14 5 5 7 7 9 9 20 25 23 19 15 14 7 6 4 3 3 4 4 3 2 4 6 6 6 5 5 5 6 5 4 4 5 2 1 3 6 8 11 13
27 12 8 5 5 5 9 14 16 19 22 23 19 14 9 9 8 5 4 5 4 4 4 2 4 6 6 6 5 5 6 6 5 5 6 5 3 1 1 4 6 9 11 14
11 7 5 6 11 19 20 18 18 20 21 20 17 12 6 10 5 4 4 4 4 4 3 5 6 6 5 4 4 6 7 6 5 7 6 5 3 1 3 6 8 11 13 16
7 6 13 16 18 20 20 19 19 21 21 19 15 9 6 5 4 5 4 3 4 3 6 8 6 4 4 3 4 6 7 6 8 7 5 4 4 4 6 8 11 13 16 19
7 11 13 16 16 18 19 18 19 19 18 15 8 5 4 5 3 4 4 3 3 4 7 7 5 5 3 4 5 6 7 8 8 7 7 6 6 7 8 11 14 17 20 23

GFSNW_700_spd_123.txt.gz
Wind_Speed
50 47 43 41 41 42 39 37 34 43 39 37 43 49 43 27 22 19 22 18 19 17 21 16 20 15 9 12 10 4 8 6 9 7 6 4 3 5 11 10 11 14 9 3
51 48 44 43 45 44 41 36 38 39 32 41 49 42 44 30 35 26 22 17 22 18 20 17 23 21 15 14 9 6 7 6 7 13 8 6 2 8 12 16 20 23 13 3
52 50 46 45 47 46 40 42 38 40 47 48 38 39 30 33 24 27 25 26 23 20 23 24 15 23 20 16 11 13 7 9 10 9 2 5 7 10 12 11 12 4 2 4
53 51 49 50 51 51 45 47 42 48 46 55 45 34 27 33 28 28 35 31 27 24 23 22 17 22 15 16 12 10 6 8 11 12 10 5 5 11 7 5 6 4 9 5
56 56 55 55 52 50 51 55 47 45 42 37 55 36 39 35 35 34 38 31 29 27 25 26 22 20 17 10 12 10 11 6 5 12 15 11 15 10 1 1 7 11 6 3
59 61 60 61 61 58 65 61 51 37 41 39 42 49 41 34 29 24 27 31 25 28 23 16 10 16 14 10 11 11 9 4 4 6 5 6 11 15 10 6 4 1 4 3
63 69 73 75 77 78 73 65 54 50 42 45 53 37 36 32 34 28 24 25 27 23 27 22 16 18 17 18 15 12 11 9 5 7 4 5 5 9 8 7 4 4 4 4
60 67 70 76 79 79 79 73 64 57 42 37 36 36 39 33 30 21 23 24 25 26 23 16 7 8 9 15 14 15 14 11 5 7 10 4 7 14 12 8 7 7 7 5
34 44 57 68 83 80 78 78 65 50 41 41 35 38 39 33 30 24 31 30 30 23 18 13 12 10 11 10 9 14 14 12 10 7 8 4 8 15 17 12 9 9 8 7
21 28 43 53 64 90 81 78 65 51 41 27 41 44 46 40 34 26 30 29 27 25 17 15 11 13 11 11 13 14 13 12 17 15 13 3 8 11 15 10 7 13 9 7
24 39 49 52 75 85 75 69 66 61 40 34 43 47 47 37 33 32 32 30 27 25 16 16 12 9 12 8 8 12 13 10 10 11 11 13 10 10 14 11 10 12 10 8
37 47 59 67 73 72 69 65 63 53 42 42 45 40 38 29 29 30 28 27 25 21 15 12 10 9 10 12 11 11 9 10 7 7 7 9 9 15 23 12 12 13 10 8
42 47 55 70 78 70 59 47 49 52 39 43 35 35 33 30 31 28 24 28 25 27 27 13 10 10 9 12 9 13 13 11 9 6 10 11 10 14 17 15 15 13 11 8
56 57 57 59 47 47 45 43 31 29 50 42 34 30 31 28 26 24 24 23 18 21 19 14 9 9 16 11 7 9 10 8 7 12 11 9 10 12 13 14 14 12 10 8
48 50 44 44 44 47 41 37 41 39 26 39 38 30 27 25 23 20 19 19 17 17 18 14 10 12 11 15 11 9 13 11 8 7 6 11 10 11 12 12 12 11 9 6
48 48 45 43 38 34 33 39 42 38 21 42 28 26 22 21 19 17 17 19 20 19 10 11 10 14 8 9 9 15 10 10 10 8 7 8 10 11 10 10 10 8 6 5
43 45 42 39 35 37 33 35 36 33 27 38 23 19 23 21 18 17 17 16 18 11 9 7 6 11 7 7 7 12 10 11 9 6 6 10 10 9 9 7 7 6 5 4
42 44 40 34 32 31 29 31 27 16 29 30 14 16 21 21 18 16 17 15 13 12 8 10 8 8 7 5 11 9 11 10 9 8 7 9 11 9 5 5 5 5 3 3
35 33 31 29 30 28 31 27 28 22 15 13 15 23 19 23 16 17 14 11 7 12 7 7 8 8 6 8 9 12 13 11 9 8 10 9 8 6 4 5 5 4 4 4
32 33 33 28 27 31 29 25 21 18 12 10 22 19 22 21 19 14 11 9 6 5 6 8 6 9 12 8 11 13 14 12 11 10 10 9 7 7 7 6 5 5 4 2
32 33 31 30 32 32 17 15 9 8 7 12 19 15 26 20 13 17 9 7 6 4 5 6 4 6 11 12 13 13 13 12 12 10 9 8 7 7 7 6 6 4 2 0
24 29 32 34 17 9 6 10 9 7 7 17 20 21 22 23 18 7 7 5 6 5 8 5 3 9 11 15 13 13 13 12 9 8 8 8 7 8 7 7 6 4 3 2
27 32 20 13 6 5 7 7 9 9 20 27 26 26 24 21 10 7 5 5 4 7 5 3 6 9 13 15 13 13 12 10 10 8 8 9 8 8 9 8 7 5 4 4
22 17 12 6 5 5 9 14 15 17 27 26 26 25 18 14 8 5 4 5 6 3 4 5 8 11 11 12 13 12 10 10 10 9 9 8 9 10 9 8 7 6 6 7
17 12 8 5 6 11 16 16 16 27 28 26 24 16 17 12 5 4 4 6 4 5 5 9 10 10 10 10 10 10 9 10 10 10 9 9 11 11 10 9 8 8 9 10
12 7 12 12 14 19 20 20 28 33 30 26 17 11 8 5 3 4 4 5 3 6 8 10 11 11 10 9 8 8 9 10 11 10 10 11 11 11 11 10 11 12 12 14
9 16 18 16 18 20 23 26 30 30 27 22 12 5 5 6 3 4 4 6 6 7 9 11 11 9 8 6 6 7 9 10 10 10 12 12 12 12 12 12 13 14 15 17

GFSNW_700_spd_129.txt.gz
Wind_Speed
41 40 38 37 36 36 35 32 31 30 30 28 34 38 39 33 29 16 21 23 22 19 21 30 25 27 23 18 12 18 18 18 18 20 17 11 9 11 18 8 3 5 6 7
44 42 40 38 38 38 37 34 33 30 29 32 38 39 39 35 36 33 28 16 18 24 25 22 27 35 34 30 20 13 15 10 9 12 8 15 7 7 10 10 11 16 4 6
47 45 43 40 38 38 34 32 29 28 32 37 37 36 40 37 36 33 28 21 23 24 25 23 20 21 20 21 20 23 21 21 15 8 9 14 14 8 8 9 6 10 16 18
47 46 45 40 38 34 32 35 33 40 35 43 42 32 39 37 37 34 23 26 24 25 23 25 33 27 20 25 28 26 26 29 30 27 24 22 28 21 17 15 17 11 16 15
48 48 45 43 39 35 37 39 39 40 42 40 34 32 40 41 27 25 30 31 28 33 31 29 20 25 28 30 27 30 30 29 21 25 21 22 23 23 23 22 21 16 17 18
48 49 47 45 42 43 45 43 43 30 31 40 37 45 43 39 27 29 23 22 24 25 30 24 28 26 24 21 21 20 25 22 16 13 10 18 13 21 21 26 21 16 15 13
47 48 48 47 46 50 50 47 45 47 41 29 38 38 36 32 28 32 26 24 26 29 27 28 30 27 29 21 22 18 20 24 16 12 14 4 6 6 10 15 17 21 20 17
47 46 49 48 49 50 53 51 51 47 45 44 34 28 27 21 23 34 28 26 28 27 30 30 26 22 19 22 23 25 21 17 10 6 9 17 20 10 4 12 14 20 15 14
51 49 47 49 51 52 51 50 47 49 48 49 41 27 24 27 24 20 27 31 31 33 27 25 13 10 12 9 12 25 30 22 18 10 6 3 5 11 14 17 15 16 19 19
56 54 50 51 52 52 52 51 49 48 49 46 33 39 37 30 28 23 33 34 31 27 31 25 12 16 13 8 15 13 29 25 27 23 14 9 10 10 13 10 6 13 15 17
57 56 55 54 54 55 55 52 50 53 49 42 44 33 35 30 33 34 31 30 31 28 26 22 14 14 17 22 21 19 24 20 20 25 11 12 19 10 11 12 14 16 15 15
50 54 57 57 58 57 56 55 52 47 49 32 36 40 44 44 33 38 37 34 34 31 28 17 17 14 12 16 10 11 14 18 14 15 11 10 5 8 13 17 18 16 15 15
49 54 59 61 62 61 63 57 54 49 50 46 37 36 32 43 34 31 34 38 37 35 37 28 11 15 21 20 12 12 16 17 15 15 15 14 16 14 15 16 18 18 17 16
41 39 47 56 62 65 66 64 59 55 50 50 36 40 31 38 33 32 32 33 32 32 26 30 19 17 16 15 16 16 19 19 19 20 22 18 16 15 15 13 13 14 15 15
35 39 51 61 65 63 63 65 61 58 56 41 35 41 34 31 32 31 36 37 30 21 18 25 25 22 19 18 19 18 21 21 16 13 10 11 11 13 9 7 7 8 10 12
21 29 50 61 65 63 65 70 66 60 65 26 35 32 33 32 30 38 29 22 16 13 19 25 25 20 21 12 20 23 21 17 15 9 8 10 11 8 6 6 7 7 7 8
36 41 47 54 64 69 78 72 66 58 60 29 25 22 24 27 29 24 17 13 17 18 18 20 24 22 18 19 17 16 19 19 12 11 12 10 8 5 6 7 7 7 9 8
65 61 58 60 68 69 53 51 46 53 44 31 16 16 26 26 24 22 20 23 24 22 21 20 15 14 18 17 22 17 14 10 12 13 10 7 5 6 8 8 8 8 7 5
56 59 65 64 62 48 49 48 47 41 38 25 24 35 33 25 23 23 24 26 24 18 21 17 12 14 11 13 13 12 10 11 12 12 9 5 6 8 10 11 8 7 7 7
47 53 54 51 49 38 40 35 32 22 19 15 32 39 31 32 28 25 21 20 17 13 16 15 14 13 13 12 10 9 10 13 13 9 7 7 7 7 10 10 9 9 7 8
44 45 53 55 52 46 34 19 12 15 12 17 31 31 33 30 31 28 13 12 10 8 10 13 9 12 14 13 10 8 8 12 12 12 11 11 11 10 10 9 8 8 9 8
48 55 53 45 33 20 9 16 13 11 12 24 28 29 31 30 26 17 10 9 9 7 11 10 7 10 10 7 6 8 7 10 12 12 11 10 10 11 11 10 9 9 11 9
42 41 31 19 7 6 8 9 12 13 29 30 35 38 34 29 18 11 8 7 6 10 10 6 7 8 7 6 8 7 7 7 8 8 9 8 9 10 9 10 10 12 10 9
30 17 9 5 6 7 14 15 14 28 32 35 36 36 25 21 13 8 6 8 10 6 7 7 8 5 6 8 7 5 5 5 5 6 7 7 8 10 11 11 12 12 12 11
20 8 5 7 13 22 20 14 16 29 33 33 32 24 21 13 7 5 6 8 5 6 7 7 5 8 8 8 7 6 5 6 7 7 7 8 8 9 10 12 13 12 12 11
12 9 13 15 21 22 21 25 29 32 29 28 23 15 8 6 7 5 4 7 4 7 8 6 8 9 9 8 7 7 7 8 8 8 8 9 10 11 12 13 13 13 13 13
8 10 12 22 27 27 31 34 33 30 26 23 16 7 4 9 6 6 10 8 7 6 7 10 11 11 9 8 7 6 6 6 8 8 9 10 10 11 13 13 13 13 14 14

GFSNW_700_spd_132.txt.gz
Wind_Speed
38 37 37 35 34 33 31 30 28 27 26 27 33 36 32 29 26 19 21 23 22 24 21 25 26 24 16 17 21 22 22 14 25 29 29 22 9 13 14 16 7 8 4 8
40 39 37 36 34 35 33 31 31 26 29 33 36 34 33 32 30 24 20 20 17 16 21 18 21 27 28 30 30 26 28 20 12 13 3 2 8 8 5 8 12 11 2 7
43 42 40 38 36 34 33 32 30 31 34 36 36 35 35 36 34 30 28 33 28 24 19 21 19 21 23 19 22 28 26 22 19 14 15 21 28 24 20 14 10 9 14 19
41 44 43 41 38 34 31 37 36 39 34 42 39 35 36 37 34 32 29 30 25 23 26 25 28 25 29 30 27 23 20 25 25 26 28 32 33 35 30 26 27 14 21 26
37 43 42 42 40 33 37 42 43 39 41 38 31 36 40 38 32 30 30 30 21 19 32 27 26 25 23 29 25 26 28 32 31 40 37 32 31 26 27 30 25 25 23 23
40 38 43 42 41 39 44 42 40 37 34 38 37 41 38 34 28 33 31 23 22 22 29 31 28 31 28 23 18 21 24 26 26 27 22 17 20 22 22 26 25 23 24 19
44 41 40 41 41 45 47 45 44 40 36 38 42 38 33 32 29 30 21 20 20 19 18 22 25 26 28 30 29 23 22 21 24 18 15 5 17 9 9 10 14 19 22 19
48 46 43 42 44 50 50 48 46 45 42 38 34 30 29 23 14 18 20 19 21 19 21 21 22 26 29 37 40 35 30 22 19 13 12 14 23 27 17 10 12 13 17 17
47 49 47 45 45 52 52 51 41 45 45 49 38 31 23 18 14 12 12 13 23 22 22 22 19 14 18 9 8 21 26 31 25 7 4 3 5 8 10 9 14 12 16 20
47 52 48 49 44 50 57 53 53 37 47 46 37 42 39 23 15 16 14 15 25 27 28 26 25 23 17 10 9 9 25 26 33 24 11 15 16 15 11 9 12 12 11 14
57 54 50 48 46 44 59 54 57 52 40 45 46 43 27 24 33 27 22 21 25 28 26 23 14 16 21 24 19 12 19 22 26 25 12 14 22 18 17 13 13 15 14 15
54 54 52 49 48 44 52 57 55 59 53 36 41 36 32 29 24 32 30 31 28 21 25 31 16 13 14 25 22 19 25 23 19 16 13 15 10 7 7 11 17 16 17 17
50 52 52 52 50 47 51 52 56 52 52 47 43 31 34 37 33 30 37 33 31 31 26 26 19 13 22 20 23 20 24 21 22 19 20 19 15 18 15 14 15 16 16 18
49 50 52 52 52 50 52 54 51 51 47 45 41 40 34 23 36 37 40 25 30 28 30 27 27 21 16 21 19 21 15 13 20 22 22 19 19 15 13 13 14 14 14 14
51 53 54 55 55 53 53 50 51 45 51 25 43 33 34 34 26 33 31 27 26 30 32 34 36 32 26 17 18 18 20 21 20 19 14 14 15 12 11 12 11 9 8 8
49 53 57 54 56 53 52 48 48 46 45 34 15 28 28 22 28 35 25 24 28 33 34 23 19 19 19 10 21 25 25 22 21 17 16 14 12 12 12 11 9 7 4 3
51 49 48 58 54 62 65 65 58 45 41 43 17 15 29 27 27 30 25 23 24 20 14 16 15 17 21 24 25 26 24 21 21 19 16 14 13 11 11 10 8 6 5 6
47 53 58 53 59 54 59 47 45 48 44 43 28 14 27 35 40 29 26 22 24 16 14 17 20 18 21 22 28 27 24 19 15 17 17 14 12 11 10 9 7 6 7 10
50 65 59 55 55 65 57 47 43 49 48 42 25 21 27 31 24 25 21 22 19 17 22 20 17 22 16 18 21 19 16 18 18 16 16 14 11 10 9 8 8 10 9 8
69 72 64 63 68 63 57 38 41 48 35 29 33 30 25 30 28 24 22 18 17 12 23 18 24 26 24 22 14 11 12 14 14 14 13 11 10 9 8 9 10 9 9 8
74 67 60 53 54 55 46 32 27 24 33 30 31 30 26 28 29 27 16 14 9 9 10 19 9 25 26 18 14 12 11 9 12 15 14 13 12 9 10 9 8 9 9 10
61 76 76 58 38 19 12 13 12 10 14 26 36 31 27 30 28 18 12 11 11 6 10 14 11 21 15 16 13 9 8 7 12 13 12 12 11 10 10 10 10 11 11 12
67 54 33 16 13 8 10 11 12 14 22 29 33 32 27 30 22 12 11 9 8 6 11 7 12 11 13 12 10 6 5 6 10 11 11 10 9 9 10 11 12 12 12 12
35 20 12 6 7 7 17 20 15 21 25 31 35 35 27 29 22 10 7 8 7 10 7 9 10 12 11 10 9 8 7 7 8 8 8 8 9 11 11 11 12 13 13 13
18 12 5 13 23 23 19 18 16 26 27 32 39 32 29 31 10 8 7 10 7 9 9 9 10 14 12 12 12 11 10 9 7 5 5 7 8 9 10 11 12 13 12 13
15 12 22 23 24 24 18 17 27 33 37 37 29 20 19 15 6 8 6 6 7 7 14 11 13 14 14 13 11 10 9 8 7 5 6 8 9 10 11 12 13 13 13 14
13 19 22 23 25 25 29 30 34 33 36 28 24 11 10 9 6 8 9 7 9 12 13 12 14 13 12 11 11 10 9 7 6 7 9 10 10 11 11 12 13 14 14 15

GFSNW_700_spd_135.txt.gz
Wind_Speed
37 37 36 35 36 33 30 30 29 29 27 29 33 38 35 32 22 23 21 20 22 20 18 20 19 20 19 9 11 15 15 21 33 28 30 18 20 17 11 9 7 10 5 13
39 38 36 36 35 35 33 32 33 27 30 35 38 37 36 34 26 23 22 18 18 18 18 14 15 16 18 21 22 19 19 13 18 19 6 7 1 11 11 15 11 7 5 6
40 40 38 37 35 34 33 31 32 32 33 39 38 38 35 30 30 28 24 23 22 22 24 17 15 19 15 20 21 15 16 20 20 20 21 23 24 23 25 25 15 23 23 32
34 39 39 38 36 32 33 36 33 38 36 44 38 34 32 32 33 29 24 26 27 27 31 29 30 28 28 27 27 25 21 24 24 27 27 29 31 34 37 32 34 22 33 29
35 36 41 39 37 33 35 40 41 38 41 34 34 39 39 37 29 28 28 26 26 23 25 23 25 21 22 24 21 18 21 26 24 32 31 35 43 37 27 29 32 34 35 33
40 38 36 39 41 40 42 44 42 38 32 37 34 40 37 35 31 31 28 26 25 25 21 19 24 24 26 24 26 22 19 20 22 29 25 23 23 23 20 20 24 26 28 24
45 44 41 37 40 44 46 44 43 40 42 36 39 37 31 30 26 26 23 20 21 16 16 18 19 22 26 30 32 29 27 26 23 23 22 12 20 18 17 15 11 10 17 23
50 48 45 41 37 44 47 38 36 47 43 41 37 34 28 25 24 26 22 18 21 16 14 16 16 22 23 31 29 31 30 32 24 15 19 24 25 22 21 21 20 14 15 14
47 50 47 44 42 40 47 49 26 36 43 44 38 33 28 23 21 17 15 9 12 20 25 20 16 12 9 7 8 13 23 26 34 20 9 3 4 5 5 6 16 9 10 13
46 48 49 47 44 41 49 51 44 30 36 43 35 36 31 25 18 16 16 13 11 18 26 22 23 23 21 13 16 14 11 19 29 23 16 17 23 18 19 10 11 10 7 10
47 50 52 50 47 44 46 51 53 39 24 37 37 42 36 31 26 20 14 10 16 12 24 26 21 19 18 20 27 20 15 11 13 16 13 13 22 22 22 19 15 12 11 15
44 47 51 50 52 49 46 48 53 53 49 16 34 40 32 24 22 27 31 29 16 11 10 18 17 22 23 25 24 23 25 26 16 16 14 19 15 13 11 11 11 19 21 18
44 48 51 45 44 45 46 43 52 56 56 57 33 27 26 34 36 31 26 28 31 29 24 26 26 25 22 21 23 23 24 23 25 28 30 29 24 19 16 21 18 20 21 19
42 47 49 52 45 45 44 44 46 52 56 53 46 42 36 26 24 33 37 30 27 25 30 28 28 29 22 23 22 26 25 26 20 25 23 20 20 20 19 17 17 18 18 15
41 42 44 50 44 41 40 40 40 43 52 32 50 48 37 23 32 29 38 36 32 29 31 29 26 28 32 25 27 28 28 25 17 18 15 16 15 15 14 14 14 14 12 9
40 41 42 43 43 38 38 38 42 42 43 47 31 4 10 32 32 32 25 26 35 36 35 41 31 28 31 23 30 30 25 17 18 20 19 19 18 15 14 13 13 11 8 6
42 41 41 42 43 46 49 47 49 40 42 40 43 31 16 13 30 27 27 30 32 34 34 24 30 33 18 27 28 17 14 18 21 23 22 21 18 15 14 13 12 9 7 6
46 44 42 41 41 42 48 42 25 34 44 40 14 30 18 12 26 24 19 23 30 25 28 29 25 21 19 21 25 23 22 23 22 22 19 18 18 15 14 13 9 7 8 9
51 46 43 39 44 48 43 35 15 25 46 45 23 25 20 18 18 23 27 34 29 20 26 27 19 22 21 20 21 16 16 17 18 18 19 18 17 16 14 10 7 8 9 9
48 51 51 49 50 39 44 39 25 29 46 30 37 28 23 24 28 27 26 20 19 13 21 19 27 31 28 28 27 22 18 15 15 16 16 14 15 14 10 8 11 11 10 9
64 63 54 50 41 43 49 34 18 27 37 53 33 34 30 22 29 27 24 11 8 6 8 18 13 30 31 29 26 20 19 17 16 16 16 15 14 11 10 11 11 10 10 9
65 65 58 53 50 34 34 26 19 23 32 36 47 36 34 24 29 20 17 9 8 6 9 10 13 27 22 15 17 20 18 17 14 13 13 13 13 12 12 12 11 10 11 10
56 56 47 44 29 23 17 24 19 14 32 35 32 40 38 35 28 11 8 8 8 7 7 7 21 23 13 15 16 18 15 12 12 13 12 11 10 10 11 12 13 12 12 12
46 31 17 14 14 10 10 21 33 19 26 43 30 39 32 25 25 8 6 9 8 6 8 14 15 11 12 16 14 11 9 9 10 11 11 11 11 12 13 13 13 12 12 13
27 14 8 9 17 20 21 22 25 20 22 27 40 35 27 28 12 9 9 8 7 9 11 13 10 13 14 14 15 13 12 11 10 10 9 9 9 9 9 10 11 11 11 13
15 11 20 27 27 29 28 25 23 26 31 36 33 18 17 15 6 10 8 6 7 9 8 10 14 16 18 18 15 13 12 11 10 9 7 7 8 8 8 8 9 10 10 12
13 19 24 25 25 24 24 25 28 30 32 35 22 8 11 9 7 8 12 12 10 7 13 13 15 16 18 16 14 12 11 10 8 7 7 6 7 8 9 10 11 12 14 15

GFSNW_700_spd_141.txt.gz
Wind_Speed
31 32 32 31 33 32 32 33 34 26 29 36 39 41 37 34 25 16 13 13 16 13 14 13 11 10 9 6 10 9 11 9 13 15 17 17 15 10 5 6 4 6 6 15
32 30 32 31 31 32 32 33 34 28 37 37 35 41 35 30 25 24 20 19 17 15 15 10 11 10 6 7 7 6 7 6 6 8 5 6 1 7 9 12 17 18 12 14
35 34 30 30 32 34 33 34 33 31 32 37 39 37 27 33 30 27 23 21 20 17 15 15 8 8 7 8 10 13 12 11 11 13 12 18 24 20 15 18 17 22 28 42
39 36 35 29 31 35 36 35 28 30 30 37 38 32 32 33 32 27 23 25 24 21 17 17 18 16 15 17 18 17 11 17 16 18 17 20 24 26 27 29 34 29 49 40
37 35 36 35 32 34 35 36 31 36 30 22 31 29 31 30 24 24 22 23 20 18 23 19 17 14 17 16 13 11 13 14 15 23 21 24 28 29 34 35 37 41 40 38
41 39 35 34 35 35 38 43 42 36 37 37 32 32 34 32 27 23 19 18 17 19 19 20 19 20 22 22 16 12 16 14 14 19 14 20 25 15 15 19 21 22 24 23
41 36 31 38 37 37 40 38 37 38 26 30 37 33 27 25 24 22 18 16 19 21 21 20 20 22 24 24 24 20 23 20 19 20 14 10 11 12 28 30 31 20 22 26
44 40 39 38 39 39 39 31 36 37 32 31 23 20 21 20 16 20 21 18 15 16 17 17 14 16 21 22 20 18 18 21 18 11 16 24 26 15 14 7 13 18 20 19
43 37 37 37 40 40 39 42 13 29 30 36 27 26 24 18 14 14 14 15 16 19 17 14 7 7 7 3 3 4 12 20 24 11 8 8 16 18 17 18 28 18 11 13
31 39 36 34 33 35 39 42 42 26 18 19 19 21 23 22 21 19 13 14 17 18 16 15 14 10 9 7 8 7 9 13 23 24 14 16 23 18 18 12 15 13 11 11
26 29 31 36 36 33 38 33 35 44 38 29 10 21 14 18 21 19 12 13 14 16 16 11 11 11 11 12 15 14 12 10 12 9 10 11 6 9 10 11 17 20 17 15
25 24 28 33 35 39 29 30 26 29 38 31 28 26 16 21 13 13 16 15 10 13 12 12 9 11 10 13 11 10 13 17 15 14 14 20 26 27 30 35 25 26 22 14
25 22 22 25 38 35 34 32 27 30 28 38 42 24 19 16 21 20 19 20 19 16 14 12 15 9 9 11 13 15 18 15 24 25 29 25 27 26 28 28 15 19 19 20
30 29 28 26 26 23 26 40 34 28 29 30 34 42 43 26 24 26 24 24 25 24 27 27 24 20 20 22 22 27 27 26 27 31 30 29 26 23 12 14 16 15 17 18
35 34 30 28 28 26 29 32 38 29 27 16 29 37 38 28 21 28 21 23 19 18 23 27 31 30 23 27 32 37 29 23 27 33 24 25 23 11 15 17 18 19 18 18
37 38 36 32 31 30 33 35 36 36 34 33 27 15 24 39 37 32 29 27 28 21 23 26 28 33 28 23 33 38 30 27 24 24 21 22 21 15 19 19 18 18 17 17
35 35 33 32 31 30 35 37 37 26 34 33 29 20 25 17 16 28 30 35 33 26 28 32 31 29 28 37 46 32 28 28 28 26 22 21 18 20 21 19 16 16 16 14
32 32 29 30 29 29 32 36 27 26 34 32 20 15 14 16 29 22 13 23 34 40 38 40 38 33 29 37 38 26 27 28 22 18 21 24 24 22 20 17 15 14 14 13
29 27 26 25 26 28 27 22 21 30 31 25 28 27 16 17 24 26 14 14 19 24 34 39 34 38 34 35 29 26 22 20 17 16 15 18 21 22 19 17 14 13 12 10
32 33 33 29 33 32 23 32 41 30 29 29 27 19 19 13 20 21 16 13 17 13 23 24 33 41 31 29 29 29 33 21 18 22 21 18 17 17 16 15 15 13 11 10
37 35 34 19 28 29 31 14 15 13 16 21 25 29 25 28 14 13 9 8 9 10 17 18 18 35 32 27 28 25 24 31 28 24 21 18 18 17 14 13 12 10 9 9
38 35 30 24 27 17 13 12 14 12 18 17 19 29 27 30 22 11 9 17 9 6 8 10 20 30 24 23 22 16 16 20 28 26 21 17 16 11 10 10 10 10 11 10
36 33 27 21 19 18 14 19 17 21 21 36 31 17 26 32 34 21 10 9 9 8 7 10 22 21 21 20 15 14 17 18 19 18 15 15 11 9 9 8 9 10 10 10
34 24 21 15 13 17 15 25 34 41 36 17 17 24 22 24 23 14 6 6 5 6 9 19 22 22 19 16 13 11 11 12 12 13 13 11 10 9 7 7 8 10 11 12
27 12 13 16 17 15 18 22 27 38 32 17 19 28 16 24 10 9 9 6 8 9 11 14 18 16 13 11 10 11 11 10 9 9 10 9 7 7 8 8 10 11 12 12
21 6 12 16 25 13 18 16 23 33 30 19 22 28 14 14 11 12 12 12 12 9 9 11 15 12 8 9 11 11 10 9 9 9 8 8 8 8 8 9 10 10 10 10
12 12 17 21 17 12 25 13 12 24 24 27 25 16 13 11 15 23 18 24 16 19 22 17 15 8 10 12 12 11 10 9 8 7 8 8 7 7 8 9 10 10 10 11

GFSNW_700_spd_144.txt.gz
Wind_Speed
36 37 39 37 35 33 31 33 34 29 27 33 43 42 27 31 26 18 18 18 14 15 17 18 17 13 9 12 12 5 8 6 12 15 14 20 16 14 12 13 9 11 10 26
37 33 32 35 35 35 34 35 33 31 36 38 36 36 36 32 27 23 19 15 17 15 16 13 17 14 15 14 10 5 7 6 8 7 6 6 8 6 5 10 13 21 19 21
40 37 32 28 34 34 36 38 35 32 39 44 46 41 38 34 29 27 26 19 18 13 16 17 9 13 14 14 12 13 12 11 14 16 10 9 15 18 17 19 20 26 36 41
44 40 37 30 31 35 37 42 29 35 41 48 39 37 29 29 28 26 27 24 22 19 17 18 17 14 12 14 15 14 10 14 15 18 19 19 21 21 23 25 30 32 49 38
43 48 42 35 30 36 36 44 35 36 34 45 47 34 35 35 32 24 24 23 20 21 20 17 9 12 14 13 12 12 13 12 13 20 18 20 24 26 26 29 30 33 35 39
48 39 39 37 36 36 40 41 42 27 31 26 31 37 26 32 28 24 20 18 18 18 17 21 22 21 19 16 11 10 12 11 10 17 11 15 20 19 9 16 20 22 26 22
52 47 36 34 40 39 41 39 41 33 22 22 24 22 26 26 21 20 18 17 17 20 19 20 20 19 20 21 22 19 15 13 14 14 14 12 7 6 16 20 22 20 24 25
51 49 44 38 39 40 43 38 36 33 23 26 24 26 23 15 16 17 18 19 21 20 19 15 9 9 14 19 19 20 21 17 14 14 17 21 26 14 9 16 18 18 18 15
50 48 42 35 37 42 38 36 20 37 27 27 22 16 18 20 18 17 16 19 20 18 17 11 8 9 7 6 5 10 18 20 20 14 11 10 7 10 20 15 23 15 10 11
41 43 43 41 38 43 43 38 39 22 31 27 23 24 22 18 16 12 12 15 19 20 17 13 11 11 9 9 11 9 12 15 23 22 20 17 14 18 13 8 9 12 16 19
37 39 40 44 42 42 40 36 39 25 17 15 25 23 22 20 19 18 18 16 18 18 15 13 11 10 13 11 12 15 14 11 13 15 17 14 10 6 10 17 20 28 34 26
47 44 44 45 41 45 41 37 33 36 32 18 17 11 14 16 15 17 20 14 9 15 12 13 10 12 9 12 13 15 18 19 13 13 13 11 19 27 27 29 28 33 27 19
44 39 34 29 31 30 31 28 27 27 28 24 22 17 19 15 12 15 19 21 15 16 19 15 14 12 12 14 16 16 15 15 16 15 19 19 21 26 23 29 30 13 12 12
37 37 31 27 25 28 29 27 20 30 20 17 15 15 27 13 13 16 17 20 21 20 20 18 19 14 13 15 16 16 15 13 16 22 25 23 22 20 19 25 16 13 15 16
36 34 32 30 27 26 23 18 9 26 19 7 13 19 16 29 27 22 21 16 20 20 23 27 25 24 21 24 24 26 21 24 22 23 21 22 24 25 25 17 14 19 19 17
31 30 30 28 26 25 23 22 16 10 8 24 17 17 13 21 31 28 19 16 26 23 25 24 25 25 24 21 33 25 23 25 27 26 26 27 24 25 23 18 17 19 19 18
28 28 28 25 23 21 20 18 15 15 13 21 15 13 19 13 13 18 21 23 25 23 29 31 30 21 23 34 45 28 26 28 28 30 29 26 22 26 21 17 21 20 19 17
29 29 27 25 23 23 23 23 21 16 17 24 14 11 15 17 19 18 12 14 19 31 31 30 32 29 27 37 40 37 32 29 26 22 21 19 20 22 23 24 22 19 18 16
28 26 26 26 26 26 26 24 21 19 19 22 19 17 16 16 12 15 21 22 18 22 30 30 27 32 32 47 38 27 24 22 16 22 21 19 17 17 19 20 20 18 16 14
31 31 32 31 29 27 25 19 20 16 26 26 28 22 21 14 12 13 16 20 18 14 21 15 30 43 45 42 29 26 22 21 25 26 23 19 19 18 16 16 17 18 16 14
34 31 28 27 24 24 26 17 25 19 21 38 25 20 19 18 14 14 14 13 8 9 14 19 16 26 28 20 19 16 18 22 25 26 23 24 19 18 18 18 18 17 14 14
31 29 33 27 27 19 17 15 15 13 16 17 29 27 19 21 17 16 8 10 8 9 11 9 11 22 15 9 10 13 17 20 21 23 27 28 22 19 18 16 16 15 14 13
28 33 25 23 19 12 11 12 18 11 21 19 18 21 26 23 21 19 9 7 12 13 10 10 25 23 19 17 18 18 17 18 19 20 22 20 17 16 14 12 12 12 12 12
27 21 18 11 13 8 8 15 23 22 13 17 18 17 13 19 21 14 9 11 9 6 7 15 23 19 18 17 15 13 13 13 14 14 14 14 14 12 11 11 10 10 11 11
16 10 11 17 16 16 18 17 16 26 23 18 13 18 16 17 11 12 10 6 8 9 14 17 10 12 16 15 12 9 9 9 10 11 11 10 11 11 10 10 10 9 10 11
14 10 11 18 22 20 20 22 20 17 22 19 23 11 9 11 10 11 16 11 9 10 9 10 16 21 21 14 9 9 9 9 8 8 10 11 11 10 9 9 8 9 10 11
7 7 12 17 16 26 18 23 23 22 23 30 20 11 10 8 10 17 18 25 21 18 18 17 21 22 17 9 9 9 7 8 9 10 9 9 8 8 7 6 7 9 10 11

GFSNW_700_spd_150.txt.gz
Wind_Speed
41 42 39 35 33 29 28 22 26 25 26 34 42 47 44 37 18 31 21 26 22 25 23 24 27 25 24 18 16 12 16 11 12 17 14 15 16 14 14 12 14 19 15 21
45 42 43 40 34 34 27 27 28 28 27 37 43 48 50 40 28 24 19 20 23 21 20 16 23 19 12 18 14 11 13 10 10 15 17 18 15 16 16 13 11 15 10 12
47 46 41 44 39 36 32 27 28 29 34 36 40 45 42 36 42 31 24 19 22 25 24 15 16 15 14 18 14 17 15 12 12 15 12 4 12 15 12 15 17 20 29 28
49 47 46 41 45 41 39 35 36 41 32 43 43 33 32 34 35 36 24 22 21 22 24 24 19 18 17 23 22 19 21 15 14 17 17 16 18 19 18 21 25 25 37 26
47 53 48 45 45 46 44 42 38 33 27 31 44 43 36 34 37 31 34 28 25 22 21 23 20 19 23 15 18 19 13 11 13 20 17 18 24 24 24 24 26 28 30 31
44 51 54 48 46 47 49 47 36 24 38 34 32 47 48 42 28 31 36 29 26 25 22 20 20 21 17 22 18 16 17 14 13 18 14 18 22 19 21 23 21 22 23 23
41 47 54 49 47 48 47 51 40 41 30 27 35 29 41 42 35 36 34 38 32 26 21 26 19 18 20 18 15 18 14 17 18 17 14 15 23 16 15 19 15 14 17 18
43 43 52 50 45 53 48 55 48 39 38 19 28 26 29 33 33 29 36 23 18 15 17 17 11 13 18 27 25 23 22 19 15 17 16 20 21 18 17 17 19 13 17 14
40 41 48 56 45 45 39 50 45 32 25 29 21 23 26 31 31 21 13 15 16 18 17 13 15 13 15 13 12 22 25 23 21 14 14 8 13 6 5 10 11 10 8 11
39 40 47 57 49 43 43 55 39 39 27 16 27 23 18 19 21 17 16 20 25 24 21 15 19 24 20 22 19 11 22 25 25 23 19 19 20 15 6 9 9 12 10 13
38 39 42 49 44 40 50 51 43 41 32 21 19 27 29 28 20 20 14 14 16 20 16 18 16 18 22 24 22 17 17 16 25 26 25 22 16 16 13 9 9 12 18 21
36 35 42 48 34 39 52 54 42 43 42 32 30 26 25 24 21 21 22 19 11 19 19 17 16 20 16 21 21 21 25 21 19 19 16 10 9 13 12 9 15 21 25 30
36 33 34 48 29 45 49 51 41 39 41 32 30 29 26 25 28 27 19 20 11 16 14 19 16 17 18 21 22 20 22 19 24 22 22 18 12 10 11 16 20 23 28 27
34 37 34 39 30 48 47 39 38 29 27 20 23 31 25 27 28 30 29 26 25 26 20 21 20 19 16 19 16 16 16 14 20 25 26 24 20 19 18 22 20 24 28 28
41 37 37 30 38 43 40 33 33 28 27 26 17 21 19 22 27 27 29 28 24 20 21 20 19 21 18 17 19 24 17 16 18 25 21 21 20 20 27 22 29 29 28 28
41 32 31 35 38 44 39 39 26 29 29 15 17 17 15 15 16 15 17 20 22 21 19 22 24 18 13 12 19 21 22 24 31 34 30 25 27 31 27 32 29 28 24 24
39 28 29 37 43 45 39 37 29 24 26 22 12 12 17 18 22 24 25 25 20 19 22 28 24 21 20 29 35 28 24 26 27 25 23 26 25 28 19 23 32 25 22 22
36 34 39 40 37 38 40 33 28 22 28 21 10 9 12 14 14 12 12 21 22 25 25 24 19 16 20 31 33 32 31 30 29 28 26 30 31 25 22 31 29 24 22 20
52 50 42 39 34 31 33 31 28 25 22 15 12 12 9 13 14 13 12 13 18 22 27 28 23 27 26 30 32 36 34 27 25 22 22 21 21 21 23 31 25 22 19 20
45 40 36 34 31 31 33 27 24 19 15 12 11 11 9 11 17 14 14 13 13 12 19 15 27 36 33 29 29 33 34 29 23 24 25 22 20 26 28 27 24 22 21 19
37 34 32 28 25 21 19 14 12 9 10 14 14 10 12 12 16 17 12 8 5 7 13 18 16 20 19 14 16 18 15 15 23 32 31 27 24 29 29 30 24 23 22 19
34 33 26 24 16 8 5 6 5 6 7 14 16 15 16 16 18 15 12 13 8 9 10 11 12 20 9 7 11 11 16 15 17 19 21 25 31 36 31 27 26 27 19 18
23 20 16 12 9 7 11 12 10 13 20 22 25 24 25 25 24 16 11 9 9 9 9 12 14 11 11 17 16 14 14 17 20 21 23 25 32 31 26 23 24 17 15 18
19 15 13 8 7 9 14 16 17 21 20 21 21 25 25 21 20 11 8 9 8 8 10 15 11 13 10 11 10 14 17 18 18 20 23 22 19 21 19 18 17 15 15 13
9 6 4 8 7 8 9 14 16 19 16 16 20 23 17 14 10 9 7 6 8 8 15 18 18 14 16 12 16 20 23 18 14 15 17 18 18 17 16 15 15 13 12 12
9 6 6 10 16 16 17 10 8 16 13 16 19 11 9 8 6 8 10 10 16 14 15 14 14 12 13 16 23 28 24 15 10 11 12 13 13 13 13 12 11 11 11 11
8 8 13 10 11 18 16 14 11 14 16 16 7 4 5 5 9 15 14 22 21 23 22 18 19 21 24 29 28 22 15 11 10 10 11 11 11 10 11 11 10 10 10 10